Observation data for Tarzan on 01/12/2018      Previous  Date  Next       Current Mesonet Observations  Soil Data  Daily Summary Page  Observations in Plain Language
KTA1 120600Z 07003KT 00/M11 A303 RMK A01 T00041107  RH  043%=      5-min Rain = 0
KTA1 120601Z 07003KT 00/M11 A303 RMK A01 T00031107  RH  043%=      5-min Rain = 0
KTA1 120602Z 07003KT 00/M11 A303 RMK A01 T00021108  RH  043%=      5-min Rain = 0
KTA1 120603Z 07003KT 00/M11 A303 RMK A01 T00011108  RH  044%=      5-min Rain = 0
KTA1 120604Z 07003KT 00/M11 A303 RMK A01 T00011108  RH  044%=      5-min Rain = 0
KTA1 120605Z 07003KT 00/11 A303 RMK A01 T00000-108  RH  044%=      5-min Rain = 0
KTA1 120606Z 07003KT 00/11 A303 RMK A01 T00-00-108  RH  044%=      5-min Rain = 0
KTA1 120607Z 07003KT 00/11 A303 RMK A01 T00000-107  RH  044%=      5-min Rain = 0
KTA1 120608Z 06003KT 00/M11 A303 RMK A01 T00021106  RH  044%=      5-min Rain = 0
KTA1 120609Z 06003KT 00/M11 A303 RMK A01 T00021106  RH  044%=      5-min Rain = 0
KTA1 120610Z 06002KT 00/M11 A303 RMK A01 T00031106  RH  044%=      5-min Rain = 0
KTA1 120611Z 06002KT 00/M11 A303 RMK A01 T00021107  RH  044%=      5-min Rain = 0
KTA1 120612Z 06002KT M00/M11 A303 RMK A01 T10021109  RH  044%=      5-min Rain = 0
KTA1 120613Z 06002KT M01/M11 A303 RMK A01 T10061109  RH  046%=      5-min Rain = 0
KTA1 120614Z 06002KT M01/M11 A303 RMK A01 T10081109  RH  047%=      5-min Rain = 0
KTA1 120615Z 06002KT M01/M11 A303 RMK A01 T10111109  RH  047%=      5-min Rain = 0
KTA1 120616Z 05002KT M01/M11 A303 RMK A01 T10121108  RH  048%=      5-min Rain = 0
KTA1 120617Z 05002KT M01/M11 A303 RMK A01 T10131106  RH  049%=      5-min Rain = 0
KTA1 120618Z 05002KT M01/M11 A303 RMK A01 T10121106  RH  049%=      5-min Rain = 0
KTA1 120619Z 05002KT M01/M11 A303 RMK A01 T10131106  RH  049%=      5-min Rain = 0
KTA1 120620Z 05002KT M01/M11 A303 RMK A01 T10111105  RH  049%=      5-min Rain = 0
KTA1 120621Z 05001KT M01/M10 A303 RMK A01 T10101104  RH  049%=      5-min Rain = 0
KTA1 120622Z 05001KT M01/M10 A303 RMK A01 T10081104  RH  048%=      5-min Rain = 0
KTA1 120623Z 05001KT M01/M10 A303 RMK A01 T10071104  RH  048%=      5-min Rain = 0
KTA1 120624Z 05001KT M01/M10 A303 RMK A01 T10071104  RH  048%=      5-min Rain = 0
KTA1 120625Z 05001KT M01/M10 A303 RMK A01 T10061104  RH  047%=      5-min Rain = 0
KTA1 120626Z 05001KT M01/M11 A303 RMK A01 T10061105  RH  047%=      5-min Rain = 0
KTA1 120627Z 05000KT M01/M11 A303 RMK A01 T10061105  RH  047%=      5-min Rain = 0
KTA1 120628Z 05000KT M01/M11 A303 RMK A01 T10081105  RH  048%=      5-min Rain = 0
KTA1 120629Z 05000KT M01/M11 A303 RMK A01 T10101105  RH  048%=      5-min Rain = 0
KTA1 120630Z 00000KT M01/M11 A303 RMK A01 T10121105  RH  049%=      5-min Rain = 0
KTA1 120631Z 00000KT M01/M11 A303 RMK A01 T10141105  RH  050%=      5-min Rain = 0
KTA1 120632Z 00000KT M02/M10 A303 RMK A01 T10161104  RH  051%=      5-min Rain = 0
KTA1 120633Z 00000KT M02/M10 A303 RMK A01 T10171104  RH  051%=      5-min Rain = 0
KTA1 120634Z 00000KT M02/M10 A303 RMK A01 T10181104  RH  052%=      5-min Rain = 0
KTA1 120635Z 00000KT M02/M10 A303 RMK A01 T10191104  RH  053%=      5-min Rain = 0
KTA1 120636Z 00000KT M02/M10 A303 RMK A01 T10211104  RH  053%=      5-min Rain = 0
KTA1 120637Z 00000KT M02/M11 A303 RMK A01 T10231105  RH  053%=      5-min Rain = 0
KTA1 120638Z 00000KT M02/M11 A303 RMK A01 T10241105  RH  054%=      5-min Rain = 0
KTA1 120639Z 00000KT M02/M10 A303 RMK A01 T10241104  RH  054%=      5-min Rain = 0
KTA1 120640Z 00000KT M02/M10 A303 RMK A01 T10231103  RH  054%=      5-min Rain = 0
KTA1 120641Z 00000KT M02/M10 A303 RMK A01 T10211101  RH  054%=      5-min Rain = 0
KTA1 120642Z 00000KT M02/M10 A303 RMK A01 T10181100  RH  054%=      5-min Rain = 0
KTA1 120643Z 05000KT M02/M10 A303 RMK A01 T10161100  RH  053%=      5-min Rain = 0
KTA1 120644Z 05000KT M02/M10 A303 RMK A01 T10151101  RH  052%=      5-min Rain = 0
KTA1 120645Z 00000KT M01/M10 A303 RMK A01 T10141101  RH  052%=      5-min Rain = 0
KTA1 120646Z 00000KT M01/M10 A303 RMK A01 T10141102  RH  051%=      5-min Rain = 0
KTA1 120647Z 00000KT M01/M10 A303 RMK A01 T10141102  RH  051%=      5-min Rain = 0
KTA1 120648Z 00000KT M01/M10 A303 RMK A01 T10141103  RH  051%=      5-min Rain = 0
KTA1 120649Z 00000KT M02/M10 A3029 RMK A01 T10151104  RH  051%=      5-min Rain = 0
KTA1 120650Z 05000KT M02/M10 A3029 RMK A01 T10151104  RH  051%=      5-min Rain = 0
KTA1 120651Z 05001KT M02/M10 A3029 RMK A01 T10151103  RH  051%=      5-min Rain = 0
KTA1 120652Z 05001KT M02/M10 A3029 RMK A01 T10161103  RH  051%=      5-min Rain = 0
KTA1 120653Z 05001KT M02/M10 A3029 RMK A01 T10161103  RH  051%=      5-min Rain = 0
KTA1 120654Z 05001KT M02/M10 A3029 RMK A01 T10161103  RH  051%=      5-min Rain = 0
KTA1 120655Z 05001KT M02/M10 A3029 RMK A01 T10161104  RH  051%=      5-min Rain = 0
KTA1 120656Z 05001KT M02/M11 A3029 RMK A01 T10151105  RH  051%=      5-min Rain = 0
KTA1 120657Z 05000KT M01/M11 A3029 RMK A01 T10141105  RH  050%=      5-min Rain = 0
KTA1 120658Z 05001KT M01/M11 A3029 RMK A01 T10141106  RH  050%=      5-min Rain = 0
KTA1 120659Z 05001KT M01/M11 A3029 RMK A01 T10141106  RH  049%=      5-min Rain = 0
KTA1 120700Z 05000KT M01/M11 A3029 RMK A01 T10141106  RH  049%=      5-min Rain = 0
KTA1 120701Z 00000KT M01/M11 A3029 RMK A01 T10141105  RH  050%=      5-min Rain = 0
KTA1 120702Z 05000KT M02/M10 A3028 RMK A01 T10151103  RH  051%=      5-min Rain = 0
KTA1 120703Z 05000KT M02/M10 A3028 RMK A01 T10161099  RH  053%=      5-min Rain = 0
KTA1 120704Z 05000KT M02/M10 A3028 RMK A01 T10171095  RH  055%=      5-min Rain = 0
KTA1 120705Z 00000KT M02/M09 A3028 RMK A01 T10171093  RH  056%=      5-min Rain = 0
KTA1 120706Z 00000KT M02/M09 A3028 RMK A01 T10181093  RH  057%=      5-min Rain = 0
KTA1 120707Z 00000KT M02/M09 A3028 RMK A01 T10181094  RH  056%=      5-min Rain = 0
KTA1 120708Z 00000KT M02/M09 A3028 RMK A01 T10191094  RH  056%=      5-min Rain = 0
KTA1 120709Z 00000KT M02/M09 A3028 RMK A01 T10201094  RH  057%=      5-min Rain = 0
KTA1 120710Z 00000KT M02/M09 A3028 RMK A01 T10221093  RH  058%=      5-min Rain = 0
KTA1 120711Z 00000KT M02/M09 A3028 RMK A01 T10231092  RH  059%=      5-min Rain = 0
KTA1 120712Z 00000KT M02/M09 A3028 RMK A01 T10241091  RH  060%=      5-min Rain = 0
KTA1 120713Z 00000KT M03/M09 A3028 RMK A01 T10251088  RH  062%=      5-min Rain = 0
KTA1 120714Z 00000KT M03/M09 A3028 RMK A01 T10251093  RH  060%=      5-min Rain = 0
KTA1 120715Z 00000KT M03/M10 A3028 RMK A01 T10271101  RH  056%=      5-min Rain = 0
KTA1 120716Z 00000KT M03/M11 A3028 RMK A01 T10281106  RH  055%=      5-min Rain = 0
KTA1 120717Z 00000KT M03/M11 A3028 RMK A01 T10291107  RH  055%=      5-min Rain = 0
KTA1 120718Z 00000KT M03/M11 A3028 RMK A01 T10291108  RH  055%=      5-min Rain = 0
KTA1 120719Z 00000KT M03/M11 A3028 RMK A01 T10291108  RH  055%=      5-min Rain = 0
KTA1 120720Z 00000KT M03/M11 A3028 RMK A01 T10291108  RH  055%=      5-min Rain = 0
KTA1 120721Z 00000KT M03/M11 A3028 RMK A01 T10291108  RH  055%=      5-min Rain = 0
KTA1 120722Z 00000KT M03/M11 A3028 RMK A01 T10281107  RH  055%=      5-min Rain = 0
KTA1 120723Z 00000KT M03/M11 A3028 RMK A01 T10271105  RH  055%=      5-min Rain = 0
KTA1 120724Z 00000KT M03/M10 A3028 RMK A01 T10261103  RH  055%=      5-min Rain = 0
KTA1 120725Z 00000KT M03/M11 A3028 RMK A01 T10251105  RH  054%=      5-min Rain = 0
KTA1 120726Z 05000KT M03/M11 A3029 RMK A01 T10261107  RH  054%=      5-min Rain = 0
KTA1 120727Z 29001KT M03/M11 A3029 RMK A01 T10281109  RH  053%=      5-min Rain = 0
KTA1 120728Z 28001KT M03/M11 A3029 RMK A01 T10291109  RH  054%=      5-min Rain = 0
KTA1 120729Z 27002KT M03/M11 A3029 RMK A01 T10301109  RH  054%=      5-min Rain = 0
KTA1 120730Z 27002KT M03/M11 A3029 RMK A01 T10311109  RH  055%=      5-min Rain = 0
KTA1 120731Z 27003KT M03/M11 A3029 RMK A01 T10321108  RH  056%=      5-min Rain = 0
KTA1 120732Z 26003KT M03/M11 A3029 RMK A01 T10331108  RH  056%=      5-min Rain = 0
KTA1 120733Z 26003KT M03/M11 A3029 RMK A01 T10331108  RH  056%=      5-min Rain = 0
KTA1 120734Z 26003KT M03/M11 A3029 RMK A01 T10331109  RH  056%=      5-min Rain = 0
KTA1 120735Z 26003KT M03/M11 A3028 RMK A01 T10321109  RH  056%=      5-min Rain = 0
KTA1 120736Z 26003KT M03/M11 A3028 RMK A01 T10311108  RH  055%=      5-min Rain = 0
KTA1 120737Z 26003KT M03/M11 A3028 RMK A01 T10311109  RH  055%=      5-min Rain = 0
KTA1 120738Z 26003KT M03/M11 A3028 RMK A01 T10311109  RH  055%=      5-min Rain = 0
KTA1 120739Z 26003KT M03/M11 A3028 RMK A01 T10301108  RH  055%=      5-min Rain = 0
KTA1 120740Z 26003KT M03/M11 A3028 RMK A01 T10291108  RH  055%=      5-min Rain = 0
KTA1 120741Z 26003KT M03/M11 A3028 RMK A01 T10291108  RH  054%=      5-min Rain = 0
KTA1 120742Z 26003KT M03/M11 A3028 RMK A01 T10281108  RH  054%=      5-min Rain = 0
KTA1 120743Z 25003KT M03/M11 A3028 RMK A01 T10281108  RH  054%=      5-min Rain = 0
KTA1 120744Z 25003KT M03/M11 A3028 RMK A01 T10281107  RH  054%=      5-min Rain = 0
KTA1 120745Z 25003KT M03/M11 A3028 RMK A01 T10281108  RH  054%=      5-min Rain = 0
KTA1 120746Z 25003KT M03/M11 A3028 RMK A01 T10271108  RH  054%=      5-min Rain = 0
KTA1 120747Z 25002KT M03/M11 A3028 RMK A01 T10271108  RH  054%=      5-min Rain = 0
KTA1 120748Z 25002KT M03/M11 A3028 RMK A01 T10261108  RH  053%=      5-min Rain = 0
KTA1 120749Z 24002KT M03/M11 A3028 RMK A01 T10261108  RH  053%=      5-min Rain = 0
KTA1 120750Z 24002KT M03/M11 A3028 RMK A01 T10261108  RH  053%=      5-min Rain = 0
KTA1 120751Z 24002KT M03/M11 A3028 RMK A01 T10261108  RH  053%=      5-min Rain = 0
KTA1 120752Z 24002KT M03/M11 A3028 RMK A01 T10261109  RH  053%=      5-min Rain = 0
KTA1 120753Z 24002KT M03/M11 A3028 RMK A01 T10261109  RH  053%=      5-min Rain = 0
KTA1 120754Z 24002KT M03/M11 A3027 RMK A01 T10261109  RH  053%=      5-min Rain = 0
KTA1 120755Z 24002KT M03/M11 A3027 RMK A01 T10261109  RH  053%=      5-min Rain = 0
KTA1 120756Z 24003KT M03/M11 A3027 RMK A01 T10271110  RH  053%=      5-min Rain = 0
KTA1 120757Z 24003KT M03/M11 A3027 RMK A01 T10261110  RH  053%=      5-min Rain = 0
KTA1 120758Z 24002KT M03/M11 A3027 RMK A01 T10261110  RH  053%=      5-min Rain = 0
KTA1 120759Z 24002KT M03/M11 A3028 RMK A01 T10271110  RH  053%=      5-min Rain = 0
KTA1 120800Z 24002KT M03/M11 A3028 RMK A01 T10281110  RH  053%=      5-min Rain = 0
KTA1 120801Z 24002KT M03/M11 A3027 RMK A01 T10281110  RH  053%=      5-min Rain = 0
KTA1 120802Z 24002KT M03/M11 A3028 RMK A01 T10281111  RH  053%=      5-min Rain = 0
KTA1 120803Z 24002KT M03/M11 A3028 RMK A01 T10281110  RH  053%=      5-min Rain = 0
KTA1 120804Z 24002KT M03/M11 A3027 RMK A01 T10281110  RH  053%=      5-min Rain = 0
KTA1 120805Z 24002KT M03/M11 A3027 RMK A01 T10281111  RH  053%=      5-min Rain = 0
KTA1 120806Z 24002KT M03/M11 A3027 RMK A01 T10291111  RH  053%=      5-min Rain = 0
KTA1 120807Z 24001KT M03/M11 A3027 RMK A01 T10291111  RH  053%=      5-min Rain = 0
KTA1 120808Z 24001KT M03/M11 A3027 RMK A01 T10311110  RH  054%=      5-min Rain = 0
KTA1 120809Z 26001KT M03/M11 A3027 RMK A01 T10311110  RH  054%=      5-min Rain = 0
KTA1 120810Z 26001KT M03/M11 A3027 RMK A01 T10321110  RH  055%=      5-min Rain = 0
KTA1 120811Z 27002KT M03/M11 A3027 RMK A01 T10321110  RH  055%=      5-min Rain = 0
KTA1 120812Z 27001KT M03/M11 A3027 RMK A01 T10321110  RH  055%=      5-min Rain = 0
KTA1 120813Z 27001KT M03/M11 A3027 RMK A01 T10321110  RH  055%=      5-min Rain = 0
KTA1 120814Z 30001KT M03/M11 A3027 RMK A01 T10331108  RH  056%=      5-min Rain = 0
KTA1 120815Z 30001KT M03/M11 A3027 RMK A01 T10331106  RH  057%=      5-min Rain = 0
KTA1 120816Z 30001KT M04/M11 A3027 RMK A01 T10351106  RH  058%=      5-min Rain = 0
KTA1 120817Z 30001KT M04/M11 A3027 RMK A01 T10371107  RH  058%=      5-min Rain = 0
KTA1 120818Z 29001KT M04/M11 A3027 RMK A01 T10391107  RH  059%=      5-min Rain = 0
KTA1 120819Z 29001KT M04/M11 A3027 RMK A01 T10401106  RH  060%=      5-min Rain = 0
KTA1 120820Z 29001KT M04/M11 A3027 RMK A01 T10401106  RH  060%=      5-min Rain = 0
KTA1 120821Z 29000KT M04/M11 A3027 RMK A01 T10401105  RH  061%=      5-min Rain = 0
KTA1 120822Z 29001KT M04/M10 A3027 RMK A01 T10401104  RH  061%=      5-min Rain = 0
KTA1 120823Z 29001KT M04/M10 A3027 RMK A01 T10401104  RH  061%=      5-min Rain = 0
KTA1 120824Z 29001KT M04/M10 A3027 RMK A01 T10401102  RH  062%=      5-min Rain = 0
KTA1 120825Z 29001KT M04/M10 A3027 RMK A01 T10391101  RH  062%=      5-min Rain = 0
KTA1 120826Z 29001KT M04/M10 A3028 RMK A01 T10381101  RH  062%=      5-min Rain = 0
KTA1 120827Z 29001KT M04/M10 A3028 RMK A01 T10381102  RH  061%=      5-min Rain = 0
KTA1 120828Z 29001KT M04/M10 A3028 RMK A01 T10381102  RH  061%=      5-min Rain = 0
KTA1 120829Z 29001KT M04/M10 A3028 RMK A01 T10371101  RH  061%=      5-min Rain = 0
KTA1 120830Z 29001KT M04/M10 A3028 RMK A01 T10351101  RH  061%=      5-min Rain = 0
KTA1 120831Z 29001KT M04/M10 A3028 RMK A01 T10351102  RH  060%=      5-min Rain = 0
KTA1 120832Z 29001KT M04/M10 A3028 RMK A01 T10351102  RH  060%=      5-min Rain = 0
KTA1 120833Z 29002KT M04/M10 A3028 RMK A01 T10351101  RH  060%=      5-min Rain = 0
KTA1 120834Z 29002KT M04/M10 A3028 RMK A01 T10351104  RH  059%=      5-min Rain = 0
KTA1 120835Z 28002KT M04/M11 A3028 RMK A01 T10361106  RH  058%=      5-min Rain = 0
KTA1 120836Z 27002KT M04/M11 A3028 RMK A01 T10381107  RH  059%=      5-min Rain = 0
KTA1 120837Z 26002KT M04/M11 A3028 RMK A01 T10381106  RH  060%=      5-min Rain = 0
KTA1 120838Z 26002KT M04/M11 A3028 RMK A01 T10381105  RH  060%=      5-min Rain = 0
KTA1 120839Z 25002KT M04/M11 A3028 RMK A01 T10391106  RH  060%=      5-min Rain = 0
KTA1 120840Z 25003KT M04/M11 A3028 RMK A01 T10391106  RH  060%=      5-min Rain = 0
KTA1 120841Z 24003KT M04/M11 A3028 RMK A01 T10401106  RH  060%=      5-min Rain = 0
KTA1 120842Z 25004KT M04/M11 A3028 RMK A01 T10401106  RH  060%=      5-min Rain = 0
KTA1 120843Z 25004KT M04/M11 A3028 RMK A01 T10401106  RH  060%=      5-min Rain = 0
KTA1 120844Z 25004KT M04/M11 A3028 RMK A01 T10401107  RH  060%=      5-min Rain = 0
KTA1 120845Z 25004KT M04/M11 A3028 RMK A01 T10401108  RH  059%=      5-min Rain = 0
KTA1 120846Z 25004KT M04/M11 A3028 RMK A01 T10411108  RH  060%=      5-min Rain = 0
KTA1 120847Z 25004KT M04/M11 A3028 RMK A01 T10411107  RH  060%=      5-min Rain = 0
KTA1 120848Z 25004KT M04/M11 A3028 RMK A01 T10401107  RH  060%=      5-min Rain = 0
KTA1 120849Z 25004KT M04/M11 A3028 RMK A01 T10401107  RH  060%=      5-min Rain = 0
KTA1 120850Z 25004KT M04/M11 A3028 RMK A01 T10401108  RH  059%=      5-min Rain = 0
KTA1 120851Z 25004KT M04/M11 A3028 RMK A01 T10401108  RH  059%=      5-min Rain = 0
KTA1 120852Z 24004KT M04/M11 A3028 RMK A01 T10391108  RH  059%=      5-min Rain = 0
KTA1 120853Z 24004KT M04/M11 A3028 RMK A01 T10391107  RH  059%=      5-min Rain = 0
KTA1 120854Z 24004KT M04/M11 A3028 RMK A01 T10371106  RH  059%=      5-min Rain = 0
KTA1 120855Z 25004KT M04/M11 A3028 RMK A01 T10361105  RH  058%=      5-min Rain = 0
KTA1 120856Z 24003KT M03/M11 A3028 RMK A01 T10331105  RH  058%=      5-min Rain = 0
KTA1 120857Z 24003KT M03/M11 A3028 RMK A01 T10331106  RH  057%=      5-min Rain = 0
KTA1 120858Z 24003KT M03/M11 A3027 RMK A01 T10321106  RH  057%=      5-min Rain = 0
KTA1 120859Z 24004KT M03/M11 A3028 RMK A01 T10321106  RH  057%=      5-min Rain = 0
KTA1 120900Z 24004KT M03/M11 A3028 RMK A01 T10321106  RH  056%=      5-min Rain = 0
KTA1 120901Z 24004KT M03/M11 A3028 RMK A01 T10311106  RH  056%=      5-min Rain = 0
KTA1 120902Z 24004KT M03/M11 A3028 RMK A01 T10301107  RH  056%=      5-min Rain = 0
KTA1 120903Z 24004KT M03/M11 A3028 RMK A01 T10311107  RH  055%=      5-min Rain = 0
KTA1 120904Z 25004KT M03/M11 A3028 RMK A01 T10311108  RH  055%=      5-min Rain = 0
KTA1 120905Z 25003KT M03/M11 A3028 RMK A01 T10301107  RH  055%=      5-min Rain = 0
KTA1 120906Z 25003KT M03/M11 A3028 RMK A01 T10301108  RH  055%=      5-min Rain = 0
KTA1 120907Z 25003KT M03/M11 A3028 RMK A01 T10291107  RH  055%=      5-min Rain = 0
KTA1 120908Z 25003KT M03/M11 A3028 RMK A01 T10271107  RH  054%=      5-min Rain = 0
KTA1 120909Z 26003KT M03/M11 A3028 RMK A01 T10271107  RH  054%=      5-min Rain = 0
KTA1 120910Z 26003KT M03/M11 A3028 RMK A01 T10271108  RH  054%=      5-min Rain = 0
KTA1 120911Z 26003KT M03/M11 A3028 RMK A01 T10271108  RH  054%=      5-min Rain = 0
KTA1 120912Z 26003KT M03/M11 A3028 RMK A01 T10271108  RH  054%=      5-min Rain = 0
KTA1 120913Z 26003KT M03/M11 A3028 RMK A01 T10281109  RH  054%=      5-min Rain = 0
KTA1 120914Z 26003KT M03/M11 A3028 RMK A01 T10291109  RH  054%=      5-min Rain = 0
KTA1 120915Z 26003KT M03/M11 A3028 RMK A01 T10291109  RH  054%=      5-min Rain = 0
KTA1 120916Z 26003KT M03/M11 A3028 RMK A01 T10291109  RH  054%=      5-min Rain = 0
KTA1 120917Z 26003KT M03/M11 A3028 RMK A01 T10291108  RH  054%=      5-min Rain = 0
KTA1 120918Z 26003KT M03/M11 A3028 RMK A01 T10281107  RH  055%=      5-min Rain = 0
KTA1 120919Z 26003KT M03/M11 A3028 RMK A01 T10281106  RH  055%=      5-min Rain = 0
KTA1 120920Z 26003KT M03/M11 A3028 RMK A01 T10281106  RH  055%=      5-min Rain = 0
KTA1 120921Z 26003KT M03/M11 A3028 RMK A01 T10281106  RH  055%=      5-min Rain = 0
KTA1 120922Z 26004KT M03/M11 A3028 RMK A01 T10281106  RH  055%=      5-min Rain = 0
KTA1 120923Z 26003KT M03/M11 A3028 RMK A01 T10281106  RH  055%=      5-min Rain = 0
KTA1 120924Z 26003KT M03/M11 A3028 RMK A01 T10281106  RH  055%=      5-min Rain = 0
KTA1 120925Z 26003KT M03/M11 A3028 RMK A01 T10281106  RH  055%=      5-min Rain = 0
KTA1 120926Z 26003KT M03/M11 A3028 RMK A01 T10291107  RH  055%=      5-min Rain = 0
KTA1 120927Z 26003KT M03/M11 A3027 RMK A01 T10291107  RH  055%=      5-min Rain = 0
KTA1 120928Z 27003KT M03/M11 A3027 RMK A01 T10291107  RH  055%=      5-min Rain = 0
KTA1 120929Z 27003KT M03/M11 A3027 RMK A01 T10291106  RH  055%=      5-min Rain = 0
KTA1 120930Z 27003KT M03/M10 A3027 RMK A01 T10281103  RH  056%=      5-min Rain = 0
KTA1 120931Z 27003KT M03/M10 A3027 RMK A01 T10281099  RH  058%=      5-min Rain = 0
KTA1 120932Z 27003KT M03/M10 A3027 RMK A01 T10271097  RH  059%=      5-min Rain = 0
KTA1 120933Z 26004KT M03/M09 A3027 RMK A01 T10271094  RH  060%=      5-min Rain = 0
KTA1 120934Z 25004KT M03/M09 A3027 RMK A01 T10271090  RH  062%=      5-min Rain = 0
KTA1 120935Z 25004KT M03/M09 A3028 RMK A01 T10271088  RH  063%=      5-min Rain = 0
KTA1 120936Z 25004KT M03/M09 A3028 RMK A01 T10271089  RH  062%=      5-min Rain = 0
KTA1 120937Z 26004KT M03/M09 A3028 RMK A01 T10271089  RH  062%=      5-min Rain = 0
KTA1 120938Z 26004KT M03/M09 A3028 RMK A01 T10271089  RH  062%=      5-min Rain = 0
KTA1 120939Z 26004KT M03/M09 A3028 RMK A01 T10281088  RH  063%=      5-min Rain = 0
KTA1 120940Z 27004KT M03/M09 A3028 RMK A01 T10291089  RH  063%=      5-min Rain = 0
KTA1 120941Z 28004KT M03/M09 A3028 RMK A01 T10301087  RH  064%=      5-min Rain = 0
KTA1 120942Z 28004KT M03/M09 A3028 RMK A01 T10301087  RH  065%=      5-min Rain = 0
KTA1 120943Z 28004KT M03/M09 A3028 RMK A01 T10301087  RH  065%=      5-min Rain = 0
KTA1 120944Z 27004KT M03/M09 A3028 RMK A01 T10311087  RH  065%=      5-min Rain = 0
KTA1 120945Z 26004KT M03/M09 A3028 RMK A01 T10311087  RH  065%=      5-min Rain = 0
KTA1 120946Z 26004KT M03/M09 A3028 RMK A01 T10311087  RH  065%=      5-min Rain = 0
KTA1 120947Z 26004KT M03/M09 A3028 RMK A01 T10311087  RH  065%=      5-min Rain = 0
KTA1 120948Z 26004KT M03/M09 A3028 RMK A01 T10301087  RH  065%=      5-min Rain = 0
KTA1 120949Z 26004KT M03/M09 A3028 RMK A01 T10301087  RH  065%=      5-min Rain = 0
KTA1 120950Z 26004KT M03/M09 A3028 RMK A01 T10301087  RH  065%=      5-min Rain = 0
KTA1 120951Z 26004KT M03/M09 A3028 RMK A01 T10311087  RH  065%=      5-min Rain = 0
KTA1 120952Z 27004KT M03/M09 A3028 RMK A01 T10311087  RH  065%=      5-min Rain = 0
KTA1 120953Z 27003KT M03/M09 A3027 RMK A01 T10321088  RH  066%=      5-min Rain = 0
KTA1 120954Z 27003KT M03/M09 A3027 RMK A01 T10331088  RH  066%=      5-min Rain = 0
KTA1 120955Z 26004KT M03/M09 A3027 RMK A01 T10341087  RH  067%=      5-min Rain = 0
KTA1 120956Z 26004KT M03/M09 A3028 RMK A01 T10341087  RH  067%=      5-min Rain = 0
KTA1 120957Z 26004KT M03/M09 A3028 RMK A01 T10331087  RH  066%=      5-min Rain = 0
KTA1 120958Z 25005KT M03/M09 A3027 RMK A01 T10321087  RH  066%=      5-min Rain = 0
KTA1 120959Z 25005KT M03/M09 A3027 RMK A01 T10321091  RH  064%=      5-min Rain = 0
KTA1 121000Z 25004KT M03/M10 A3027 RMK A01 T10311098  RH  060%=      5-min Rain = 0
KTA1 121001Z 25004KT M03/M10 A3027 RMK A01 T10301102  RH  058%=      5-min Rain = 0
KTA1 121002Z 25004KT M03/M10 A3027 RMK A01 T10291103  RH  057%=      5-min Rain = 0
KTA1 121003Z 25004KT M03/M10 A3027 RMK A01 T10291103  RH  057%=      5-min Rain = 0
KTA1 121004Z 26003KT M03/M10 A3027 RMK A01 T10281103  RH  056%=      5-min Rain = 0
KTA1 121005Z 26003KT M03/M10 A3027 RMK A01 T10281103  RH  056%=      5-min Rain = 0
KTA1 121006Z 26004KT M03/M10 A3027 RMK A01 T10281103  RH  056%=      5-min Rain = 0
KTA1 121007Z 26004KT M03/M10 A3027 RMK A01 T10281103  RH  056%=      5-min Rain = 0
KTA1 121008Z 26003KT M03/M10 A3027 RMK A01 T10291103  RH  057%=      5-min Rain = 0
KTA1 121009Z 26003KT M03/M10 A3027 RMK A01 T10301104  RH  057%=      5-min Rain = 0
KTA1 121010Z 26002KT M03/M10 A3027 RMK A01 T10321104  RH  058%=      5-min Rain = 0
KTA1 121011Z 27003KT M03/M10 A3027 RMK A01 T10341102  RH  059%=      5-min Rain = 0
KTA1 121012Z 28002KT M04/M10 A3027 RMK A01 T10351102  RH  060%=      5-min Rain = 0
KTA1 121013Z 28003KT M04/M10 A3027 RMK A01 T10351100  RH  061%=      5-min Rain = 0
KTA1 121014Z 28003KT M04/M10 A3027 RMK A01 T10361099  RH  062%=      5-min Rain = 0
KTA1 121015Z 28003KT M04/M10 A3027 RMK A01 T10371095  RH  064%=      5-min Rain = 0
KTA1 121016Z 27003KT M04/M10 A3027 RMK A01 T10381095  RH  065%=      5-min Rain = 0
KTA1 121017Z 27002KT M04/M10 A3027 RMK A01 T10391096  RH  064%=      5-min Rain = 0
KTA1 121018Z 26002KT M04/M10 A3027 RMK A01 T10391097  RH  064%=      5-min Rain = 0
KTA1 121019Z 26002KT M04/M10 A3027 RMK A01 T10401100  RH  063%=      5-min Rain = 0
KTA1 121020Z 25002KT M04/M10 A3027 RMK A01 T10401101  RH  063%=      5-min Rain = 0
KTA1 121021Z 24002KT M04/M10 A3027 RMK A01 T10401102  RH  062%=      5-min Rain = 0
KTA1 121022Z 23002KT M04/M10 A3027 RMK A01 T10391102  RH  062%=      5-min Rain = 0
KTA1 121023Z 21002KT M04/M10 A3026 RMK A01 T10401103  RH  061%=      5-min Rain = 0
KTA1 121024Z 19001KT M04/M11 A3026 RMK A01 T10441105  RH  062%=      5-min Rain = 0
KTA1 121025Z 18001KT M05/M11 A3026 RMK A01 T10481107  RH  063%=      5-min Rain = 0
KTA1 121026Z 18001KT M05/M11 A3026 RMK A01 T10501107  RH  064%=      5-min Rain = 0
KTA1 121027Z 17001KT M05/M11 A3026 RMK A01 T10521108  RH  065%=      5-min Rain = 0
KTA1 121028Z 14001KT M05/M11 A3026 RMK A01 T10531109  RH  065%=      5-min Rain = 0
KTA1 121029Z 14002KT M06/M11 A3026 RMK A01 T10551110  RH  065%=      5-min Rain = 0
KTA1 121030Z 13003KT M06/M11 A3026 RMK A01 T10561111  RH  065%=      5-min Rain = 0
KTA1 121031Z 18002KT M06/M11 A3026 RMK A01 T10581112  RH  066%=      5-min Rain = 0
KTA1 121032Z 13003KT M06/M11 A3026 RMK A01 T10581112  RH  066%=      5-min Rain = 0
KTA1 121033Z 15002KT M06/M11 A3026 RMK A01 T10581112  RH  066%=      5-min Rain = 0
KTA1 121034Z 15003KT M06/M11 A3026 RMK A01 T10591112  RH  066%=      5-min Rain = 0
KTA1 121035Z 15003KT M06/M11 A3026 RMK A01 T10591112  RH  066%=      5-min Rain = 0
KTA1 121036Z 14002KT M06/M11 A3026 RMK A01 T10601112  RH  067%=      5-min Rain = 0
KTA1 121037Z 13002KT M06/M11 A3026 RMK A01 T10601112  RH  067%=      5-min Rain = 0
KTA1 121038Z 13002KT M06/M11 A3026 RMK A01 T10601112  RH  067%=      5-min Rain = 0
KTA1 121039Z 13002KT M06/M11 A3026 RMK A01 T10601112  RH  066%=      5-min Rain = 0
KTA1 121040Z 12002KT M06/M11 A3026 RMK A01 T10601112  RH  066%=      5-min Rain = 0
KTA1 121041Z 14002KT M06/M11 A3026 RMK A01 T10581112  RH  066%=      5-min Rain = 0
KTA1 121042Z 11003KT M06/M11 A3026 RMK A01 T10581113  RH  065%=      5-min Rain = 0
KTA1 121043Z 13002KT M06/M11 A3026 RMK A01 T10581113  RH  065%=      5-min Rain = 0
KTA1 121044Z 14002KT M06/M11 A3026 RMK A01 T10581113  RH  065%=      5-min Rain = 0
KTA1 121045Z 11004KT M06/M11 A3026 RMK A01 T10581114  RH  065%=      5-min Rain = 0
KTA1 121046Z 10003KT M06/M11 A3026 RMK A01 T10571114  RH  064%=      5-min Rain = 0
KTA1 121047Z 11003KT M06/M11 A3026 RMK A01 T10561113  RH  064%=      5-min Rain = 0
KTA1 121048Z 10004KT M06/M11 A3026 RMK A01 T10551113  RH  064%=      5-min Rain = 0
KTA1 121049Z 10003KT M06/M11 A3026 RMK A01 T10551113  RH  064%=      5-min Rain = 0
KTA1 121050Z 10003KT M06/M11 A3026 RMK A01 T10561114  RH  064%=      5-min Rain = 0
KTA1 121051Z 11003KT M06/M11 A3026 RMK A01 T10561114  RH  064%=      5-min Rain = 0
KTA1 121052Z 12004KT M06/M11 A3026 RMK A01 T10561114  RH  064%=      5-min Rain = 0
KTA1 121053Z 12003KT M06/M11 A3026 RMK A01 T10561114  RH  064%=      5-min Rain = 0
KTA1 121054Z 11004KT M06/M11 A3026 RMK A01 T10561113  RH  064%=      5-min Rain = 0
KTA1 121055Z 12004KT M06/M11 A3026 RMK A01 T10561113  RH  064%=      5-min Rain = 0
KTA1 121056Z 11005KT M06/M11 A3026 RMK A01 T10571114  RH  064%=      5-min Rain = 0
KTA1 121057Z 12005KT M06/M11 A3026 RMK A01 T10581114  RH  064%=      5-min Rain = 0
KTA1 121058Z 11005KT M06/M11 A3026 RMK A01 T10581114  RH  064%=      5-min Rain = 0
KTA1 121059Z 12005KT M06/M11 A3026 RMK A01 T10581114  RH  064%=      5-min Rain = 0
KTA1 121100Z 11005KT M06/M11 A3026 RMK A01 T10581114  RH  064%=      5-min Rain = 0
KTA1 121101Z 12005KT M06/M12 A3026 RMK A01 T10581115  RH  064%=      5-min Rain = 0
KTA1 121102Z 12004KT M06/M12 A3026 RMK A01 T10581115  RH  064%=      5-min Rain = 0
KTA1 121103Z 11004KT M06/M12 A3026 RMK A01 T10581115  RH  064%=      5-min Rain = 0
KTA1 121104Z 11005KT M06/M12 A3026 RMK A01 T10581115  RH  064%=      5-min Rain = 0
KTA1 121105Z 13005KT M06/M12 A3026 RMK A01 T10581115  RH  064%=      5-min Rain = 0
KTA1 121106Z 12005KT M06/M12 A3026 RMK A01 T10581115  RH  064%=      5-min Rain = 0
KTA1 121107Z 12005KT M06/M12 A3025 RMK A01 T10581115  RH  064%=      5-min Rain = 0
KTA1 121108Z 12005KT M06/M12 A3025 RMK A01 T10571115  RH  064%=      5-min Rain = 0
KTA1 121109Z 11004KT M06/M12 A3025 RMK A01 T10571115  RH  064%=      5-min Rain = 0
KTA1 121110Z 11004KT M06/M12 A3025 RMK A01 T10571115  RH  064%=      5-min Rain = 0
KTA1 121111Z 10004KT M06/M11 A3025 RMK A01 T10561114  RH  063%=      5-min Rain = 0
KTA1 121112Z 10004KT M06/M12 A3025 RMK A01 T10561115  RH  063%=      5-min Rain = 0
KTA1 121113Z 11004KT M06/M12 A3025 RMK A01 T10561115  RH  063%=      5-min Rain = 0
KTA1 121114Z 11004KT M06/M12 A3025 RMK A01 T10561115  RH  063%=      5-min Rain = 0
KTA1 121115Z 11004KT M06/M12 A3025 RMK A01 T10561115  RH  063%=      5-min Rain = 0
KTA1 121116Z 11004KT M06/M12 A3025 RMK A01 T10561115  RH  063%=      5-min Rain = 0
KTA1 121117Z 11004KT M06/M11 A3025 RMK A01 T10561114  RH  063%=      5-min Rain = 0
KTA1 121118Z 11004KT M06/M11 A3025 RMK A01 T10551114  RH  063%=      5-min Rain = 0
KTA1 121119Z 11005KT M05/M11 A3026 RMK A01 T10541114  RH  063%=      5-min Rain = 0
KTA1 121120Z 11005KT M05/M11 A3026 RMK A01 T10541114  RH  063%=      5-min Rain = 0
KTA1 121121Z 11004KT M05/M11 A3026 RMK A01 T10531114  RH  062%=      5-min Rain = 0
KTA1 121122Z 12004KT M05/M11 A3026 RMK A01 T10531114  RH  062%=      5-min Rain = 0
KTA1 121123Z 12005KT M05/M11 A3026 RMK A01 T10531114  RH  062%=      5-min Rain = 0
KTA1 121124Z 12005KT M05/M11 A3026 RMK A01 T10531114  RH  062%=      5-min Rain = 0
KTA1 121125Z 12005KT M05/M11 A3026 RMK A01 T10531114  RH  062%=      5-min Rain = 0
KTA1 121126Z 12005KT M05/M11 A3026 RMK A01 T10531114  RH  062%=      5-min Rain = 0
KTA1 121127Z 12005KT M05/M11 A3026 RMK A01 T10531114  RH  062%=      5-min Rain = 0
KTA1 121128Z 13004KT M05/M12 A3026 RMK A01 T10541115  RH  062%=      5-min Rain = 0
KTA1 121129Z 13004KT M05/M12 A3026 RMK A01 T10541115  RH  062%=      5-min Rain = 0
KTA1 121130Z 13004KT M06/M12 A3026 RMK A01 T10551115  RH  063%=      5-min Rain = 0
KTA1 121131Z 13004KT M06/M12 A3026 RMK A01 T10551115  RH  063%=      5-min Rain = 0
KTA1 121132Z 13004KT M06/M11 A3026 RMK A01 T10551114  RH  063%=      5-min Rain = 0
KTA1 121133Z 13005KT M06/M11 A3026 RMK A01 T10551114  RH  063%=      5-min Rain = 0
KTA1 121134Z 12005KT M06/M11 A3026 RMK A01 T10551114  RH  063%=      5-min Rain = 0
KTA1 121135Z 12005KT M05/M11 A3026 RMK A01 T10541113  RH  063%=      5-min Rain = 0
KTA1 121136Z 12005KT M05/M11 A3026 RMK A01 T10531113  RH  063%=      5-min Rain = 0
KTA1 121137Z 12005KT M05/M11 A3026 RMK A01 T10521113  RH  063%=      5-min Rain = 0
KTA1 121138Z 13005KT M05/M11 A3026 RMK A01 T10511112  RH  062%=      5-min Rain = 0
KTA1 121139Z 13005KT M05/M11 A3026 RMK A01 T10511113  RH  062%=      5-min Rain = 0
KTA1 121140Z 13005KT M05/M11 A3026 RMK A01 T10511113  RH  062%=      5-min Rain = 0
KTA1 121141Z 13006KT M05/M11 A3025 RMK A01 T10511113  RH  062%=      5-min Rain = 0
KTA1 121142Z 12006KT M05/M11 A3025 RMK A01 T10511113  RH  062%=      5-min Rain = 0
KTA1 121143Z 12005KT M05/M11 A3025 RMK A01 T10511113  RH  062%=      5-min Rain = 0
KTA1 121144Z 12005KT M05/M11 A3026 RMK A01 T10511113  RH  062%=      5-min Rain = 0
KTA1 121145Z 11004KT M05/M11 A3026 RMK A01 T10511113  RH  061%=      5-min Rain = 0
KTA1 121146Z 10004KT M05/M11 A3026 RMK A01 T10501113  RH  061%=      5-min Rain = 0
KTA1 121147Z 10004KT M05/M11 A3026 RMK A01 T10491113  RH  061%=      5-min Rain = 0
KTA1 121148Z 10004KT M05/M11 A3026 RMK A01 T10481112  RH  061%=      5-min Rain = 0
KTA1 121149Z 10004KT M05/M11 A3026 RMK A01 T10491113  RH  061%=      5-min Rain = 0
KTA1 121150Z 11004KT M05/M11 A3026 RMK A01 T10491113  RH  061%=      5-min Rain = 0
KTA1 121151Z 11004KT M05/M11 A3026 RMK A01 T10491113  RH  061%=      5-min Rain = 0
KTA1 121152Z 11005KT M05/M11 A3026 RMK A01 T10491113  RH  061%=      5-min Rain = 0
KTA1 121153Z 11005KT M05/M11 A3026 RMK A01 T10491112  RH  061%=      5-min Rain = 0
KTA1 121154Z 11006KT M05/M11 A3026 RMK A01 T10481112  RH  061%=      5-min Rain = 0
KTA1 121155Z 11006KT M05/M11 A3026 RMK A01 T10481112  RH  061%=      5-min Rain = 0
KTA1 121156Z 11005KT M05/M11 A3026 RMK A01 T10481112  RH  061%=      5-min Rain = 0
KTA1 121157Z 11005KT M05/M11 A3026 RMK A01 T10481112  RH  061%=      5-min Rain = 0
KTA1 121158Z 11005KT M05/M11 A3026 RMK A01 T10491113  RH  061%=      5-min Rain = 0
KTA1 121159Z 11005KT M05/M11 A3026 RMK A01 T10491112  RH  061%=      5-min Rain = 0
KTA1 121200Z 11005KT M05/M11 A3026 RMK A01 T10491112  RH  061%=      5-min Rain = 0
KTA1 121201Z 11006KT M05/M11 A3026 RMK A01 T10501112  RH  061%=      5-min Rain = 0
KTA1 121202Z 12006KT M05/M11 A3026 RMK A01 T10501112  RH  062%=      5-min Rain = 0
KTA1 121203Z 12006KT M05/M11 A3026 RMK A01 T10511113  RH  062%=      5-min Rain = 0
KTA1 121204Z 11006KT M05/M11 A3026 RMK A01 T10511113  RH  062%=      5-min Rain = 0
KTA1 121205Z 11007KT M05/M11 A3026 RMK A01 T10521113  RH  062%=      5-min Rain = 0
KTA1 121206Z 11007KT M05/M11 A3026 RMK A01 T10521112  RH  063%=      5-min Rain = 0
KTA1 121207Z 11007KT M05/M11 A3026 RMK A01 T10521112  RH  063%=      5-min Rain = 0
KTA1 121208Z 11006KT M05/M11 A3026 RMK A01 T10521111  RH  063%=      5-min Rain = 0
KTA1 121209Z 11006KT M05/M11 A3026 RMK A01 T10521111  RH  063%=      5-min Rain = 0
KTA1 121210Z 11006KT M05/M11 A3026 RMK A01 T10521111  RH  063%=      5-min Rain = 0
KTA1 121211Z 11006KT M05/M11 A3026 RMK A01 T10521111  RH  063%=      5-min Rain = 0
KTA1 121212Z 11006KT M05/M11 A3026 RMK A01 T10511111  RH  063%=      5-min Rain = 0
KTA1 121213Z 11006KT M05/M11 A3026 RMK A01 T10511110  RH  063%=      5-min Rain = 0
KTA1 121214Z 11006KT M05/M11 A3026 RMK A01 T10521110  RH  063%=      5-min Rain = 0
KTA1 121215Z 11006KT M05/M11 A3026 RMK A01 T10511110  RH  063%=      5-min Rain = 0
KTA1 121216Z 11006KT M05/M11 A3026 RMK A01 T10501109  RH  063%=      5-min Rain = 0
KTA1 121217Z 11006KT M05/M11 A3026 RMK A01 T10491109  RH  063%=      5-min Rain = 0
KTA1 121218Z 12006KT M05/M11 A3027 RMK A01 T10481108  RH  063%=      5-min Rain = 0
KTA1 121219Z 12006KT M05/M11 A3027 RMK A01 T10481109  RH  063%=      5-min Rain = 0
KTA1 121220Z 12006KT M05/M11 A3027 RMK A01 T10481109  RH  063%=      5-min Rain = 0
KTA1 121221Z 12006KT M05/M11 A3027 RMK A01 T10481109  RH  063%=      5-min Rain = 0
KTA1 121222Z 12006KT M05/M11 A3027 RMK A01 T10491109  RH  063%=      5-min Rain = 0
KTA1 121223Z 12006KT M05/M11 A3027 RMK A01 T10481109  RH  063%=      5-min Rain = 0
KTA1 121224Z 12006KT M05/M11 A3027 RMK A01 T10491109  RH  063%=      5-min Rain = 0
KTA1 121225Z 12006KT M05/M11 A3027 RMK A01 T10491109  RH  063%=      5-min Rain = 0
KTA1 121226Z 12006KT M05/M11 A3027 RMK A01 T10491109  RH  063%=      5-min Rain = 0
KTA1 121227Z 12006KT M05/M11 A3027 RMK A01 T10491109  RH  063%=      5-min Rain = 0
KTA1 121228Z 12006KT M05/M11 A3027 RMK A01 T10491109  RH  063%=      5-min Rain = 0
KTA1 121229Z 12006KT M05/M11 A3027 RMK A01 T10491109  RH  063%=      5-min Rain = 0
KTA1 121230Z 12006KT M05/M11 A3027 RMK A01 T10491108  RH  063%=      5-min Rain = 0
KTA1 121231Z 12006KT M05/M11 A3027 RMK A01 T10491108  RH  063%=      5-min Rain = 0
KTA1 121232Z 12006KT M05/M11 A3027 RMK A01 T10501109  RH  063%=      5-min Rain = 0
KTA1 121233Z 12006KT M05/M11 A3027 RMK A01 T10501109  RH  063%=      5-min Rain = 0
KTA1 121234Z 13006KT M05/M11 A3027 RMK A01 T10501109  RH  064%=      5-min Rain = 0
KTA1 121235Z 13005KT M05/M11 A3027 RMK A01 T10511109  RH  064%=      5-min Rain = 0
KTA1 121236Z 13005KT M05/M11 A3027 RMK A01 T10511108  RH  064%=      5-min Rain = 0
KTA1 121237Z 13005KT M05/M11 A3027 RMK A01 T10501108  RH  064%=      5-min Rain = 0
KTA1 121238Z 13005KT M05/M11 A3027 RMK A01 T10491107  RH  064%=      5-min Rain = 0
KTA1 121239Z 13005KT M05/M11 A3027 RMK A01 T10481106  RH  064%=      5-min Rain = 0
KTA1 121240Z 13005KT M05/M11 A3027 RMK A01 T10481106  RH  064%=      5-min Rain = 0
KTA1 121241Z 13005KT M05/M11 A3027 RMK A01 T10471106  RH  063%=      5-min Rain = 0
KTA1 121242Z 12005KT M05/M11 A3027 RMK A01 T10461106  RH  063%=      5-min Rain = 0
KTA1 121243Z 12005KT M05/M11 A3027 RMK A01 T10451106  RH  063%=      5-min Rain = 0
KTA1 121244Z 12005KT M05/M11 A3027 RMK A01 T10451106  RH  062%=      5-min Rain = 0
KTA1 121245Z 12005KT M05/M11 A3027 RMK A01 T10451106  RH  062%=      5-min Rain = 0
KTA1 121246Z 12005KT M05/M11 A3027 RMK A01 T10451106  RH  062%=      5-min Rain = 0
KTA1 121247Z 12005KT M04/M11 A3027 RMK A01 T10441106  RH  062%=      5-min Rain = 0
KTA1 121248Z 12005KT M04/M11 A3027 RMK A01 T10441105  RH  062%=      5-min Rain = 0
KTA1 121249Z 12005KT M04/M11 A3027 RMK A01 T10441106  RH  062%=      5-min Rain = 0
KTA1 121250Z 12005KT M04/M11 A3027 RMK A01 T10441106  RH  062%=      5-min Rain = 0
KTA1 121251Z 12005KT M05/M11 A3027 RMK A01 T10451106  RH  062%=      5-min Rain = 0
KTA1 121252Z 12005KT M05/M11 A3027 RMK A01 T10451107  RH  062%=      5-min Rain = 0
KTA1 121253Z 12005KT M05/M11 A3027 RMK A01 T10451107  RH  062%=      5-min Rain = 0
KTA1 121254Z 12005KT M05/M11 A3027 RMK A01 T10451107  RH  062%=      5-min Rain = 0
KTA1 121255Z 12005KT M05/M11 A3027 RMK A01 T10451107  RH  062%=      5-min Rain = 0
KTA1 121256Z 12005KT M05/M11 A3027 RMK A01 T10451107  RH  062%=      5-min Rain = 0
KTA1 121257Z 12005KT M05/M11 A3026 RMK A01 T10451107  RH  062%=      5-min Rain = 0
KTA1 121258Z 12005KT M05/M11 A3026 RMK A01 T10451107  RH  062%=      5-min Rain = 0
KTA1 121259Z 12005KT M05/M11 A3026 RMK A01 T10451107  RH  062%=      5-min Rain = 0
KTA1 121300Z 12005KT M05/M11 A3026 RMK A01 T10461108  RH  062%=      5-min Rain = 0
KTA1 121301Z 12005KT M05/M11 A3026 RMK A01 T10461108  RH  062%=      5-min Rain = 0
KTA1 121302Z 11005KT M05/M11 A3026 RMK A01 T10461108  RH  062%=      5-min Rain = 0
KTA1 121303Z 11005KT M05/M11 A3027 RMK A01 T10461108  RH  062%=      5-min Rain = 0
KTA1 121304Z 11006KT M05/M11 A3027 RMK A01 T10461108  RH  062%=      5-min Rain = 0
KTA1 121305Z 11006KT M05/M11 A3027 RMK A01 T10461107  RH  062%=      5-min Rain = 0
KTA1 121306Z 11006KT M05/M11 A3027 RMK A01 T10461107  RH  062%=      5-min Rain = 0
KTA1 121307Z 11006KT M05/M11 A3027 RMK A01 T10461108  RH  062%=      5-min Rain = 0
KTA1 121308Z 11006KT M05/M11 A3027 RMK A01 T10451107  RH  062%=      5-min Rain = 0
KTA1 121309Z 12006KT M05/M11 A3027 RMK A01 T10451107  RH  062%=      5-min Rain = 0
KTA1 121310Z 11006KT M05/M11 A3027 RMK A01 T10451107  RH  062%=      5-min Rain = 0
KTA1 121311Z 11006KT M05/M11 A3027 RMK A01 T10451107  RH  062%=      5-min Rain = 0
KTA1 121312Z 11005KT M05/M11 A3027 RMK A01 T10451107  RH  062%=      5-min Rain = 0
KTA1 121313Z 11005KT M05/M11 A3027 RMK A01 T10451107  RH  062%=      5-min Rain = 0
KTA1 121314Z 11005KT M05/M11 A3027 RMK A01 T10451107  RH  062%=      5-min Rain = 0
KTA1 121315Z 11005KT M05/M11 A3027 RMK A01 T10451106  RH  062%=      5-min Rain = 0
KTA1 121316Z 11005KT M04/M11 A3027 RMK A01 T10441106  RH  062%=      5-min Rain = 0
KTA1 121317Z 11005KT M04/M11 A3027 RMK A01 T10441106  RH  062%=      5-min Rain = 0
KTA1 121318Z 11005KT M04/M11 A3027 RMK A01 T10441106  RH  062%=      5-min Rain = 0
KTA1 121319Z 12005KT M04/M11 A3027 RMK A01 T10431105  RH  062%=      5-min Rain = 0
KTA1 121320Z 11005KT M04/M11 A3027 RMK A01 T10431105  RH  062%=      5-min Rain = 0
KTA1 121321Z 12006KT M04/M11 A3027 RMK A01 T10431105  RH  062%=      5-min Rain = 0
KTA1 121322Z 12006KT M04/M11 A3027 RMK A01 T10431105  RH  062%=      5-min Rain = 0
KTA1 121323Z 12006KT M04/M11 A3027 RMK A01 T10441106  RH  062%=      5-min Rain = 0
KTA1 121324Z 11006KT M04/M11 A3027 RMK A01 T10441106  RH  062%=      5-min Rain = 0
KTA1 121325Z 11006KT M04/M11 A3027 RMK A01 T10441106  RH  062%=      5-min Rain = 0
KTA1 121326Z 11006KT M04/M11 A3027 RMK A01 T10441105  RH  062%=      5-min Rain = 0
KTA1 121327Z 12005KT M04/M11 A3027 RMK A01 T10441105  RH  062%=      5-min Rain = 0
KTA1 121328Z 12005KT M04/M11 A3027 RMK A01 T10441105  RH  062%=      5-min Rain = 0
KTA1 121329Z 12005KT M05/M11 A3027 RMK A01 T10451106  RH  062%=      5-min Rain = 0
KTA1 121330Z 12005KT M05/M11 A3027 RMK A01 T10451106  RH  063%=      5-min Rain = 0
KTA1 121331Z 12006KT M05/M11 A3027 RMK A01 T10451106  RH  063%=      5-min Rain = 0
KTA1 121332Z 12006KT M05/M11 A3027 RMK A01 T10451106  RH  063%=      5-min Rain = 0
KTA1 121333Z 12006KT M05/M11 A3027 RMK A01 T10451105  RH  063%=      5-min Rain = 0
KTA1 121334Z 12006KT M05/M11 A3027 RMK A01 T10451106  RH  063%=      5-min Rain = 0
KTA1 121335Z 12006KT M05/M11 A3027 RMK A01 T10461106  RH  063%=      5-min Rain = 0
KTA1 121336Z 12006KT M05/M11 A3027 RMK A01 T10461106  RH  063%=      5-min Rain = 0
KTA1 121337Z 12007KT M05/M11 A3027 RMK A01 T10471106  RH  063%=      5-min Rain = 0
KTA1 121338Z 12006KT M05/M11 A3027 RMK A01 T10471106  RH  063%=      5-min Rain = 0
KTA1 121339Z 12006KT M05/M11 A3027 RMK A01 T10461106  RH  063%=      5-min Rain = 0
KTA1 121340Z 12006KT M05/M11 A3027 RMK A01 T10461105  RH  063%=      5-min Rain = 0
KTA1 121341Z 12006KT M05/M11 A3027 RMK A01 T10461105  RH  063%=      5-min Rain = 0
KTA1 121342Z 12006KT M05/M11 A3027 RMK A01 T10461105  RH  063%=      5-min Rain = 0
KTA1 121343Z 11006KT M05/M10 A3027 RMK A01 T10451104  RH  063%=      5-min Rain = 0
KTA1 121344Z 11006KT M05/M10 A3027 RMK A01 T10451104  RH  063%=      5-min Rain = 0
KTA1 121345Z 12006KT M05/M10 A3027 RMK A01 T10451104  RH  063%=      5-min Rain = 0
KTA1 121346Z 12005KT M05/M10 A3027 RMK A01 T10451104  RH  063%=      5-min Rain = 0
KTA1 121347Z 12005KT M04/M10 A3027 RMK A01 T10441103  RH  063%=      5-min Rain = 0
KTA1 121348Z 12004KT M04/M10 A3027 RMK A01 T10441103  RH  063%=      5-min Rain = 0
KTA1 121349Z 12005KT M04/M10 A3027 RMK A01 T10441103  RH  063%=      5-min Rain = 0
KTA1 121350Z 12005KT M04/M10 A3028 RMK A01 T10441103  RH  063%=      5-min Rain = 0
KTA1 121351Z 12005KT M04/M10 A3028 RMK A01 T10431103  RH  063%=      5-min Rain = 0
KTA1 121352Z 13005KT M04/M10 A3028 RMK A01 T10431103  RH  063%=      5-min Rain = 0
KTA1 121353Z 13005KT M04/M10 A3028 RMK A01 T10431103  RH  063%=      5-min Rain = 0
KTA1 121354Z 13005KT M04/M10 A3027 RMK A01 T10421103  RH  063%=      5-min Rain = 0
KTA1 121355Z 12005KT M04/M10 A3027 RMK A01 T10421103  RH  063%=      5-min Rain = 0
KTA1 121356Z 12006KT M04/M10 A3027 RMK A01 T10411103  RH  062%=      5-min Rain = 0
KTA1 121357Z 12006KT M04/M10 A3027 RMK A01 T10411103  RH  062%=      5-min Rain = 0
KTA1 121358Z 12006KT M04/M10 A3027 RMK A01 T10411103  RH  062%=      5-min Rain = 0
KTA1 121359Z 12006KT M04/M10 A3027 RMK A01 T10411103  RH  062%=      5-min Rain = 0
KTA1 121400Z 12006KT M04/M10 A3027 RMK A01 T10401104  RH  061%=      5-min Rain = 0
KTA1 121401Z 13005KT M04/M10 A3027 RMK A01 T10401104  RH  061%=      5-min Rain = 0
KTA1 121402Z 12005KT M04/M11 A3027 RMK A01 T10401105  RH  061%=      5-min Rain = 0
KTA1 121403Z 12005KT M04/M11 A3028 RMK A01 T10401105  RH  061%=      5-min Rain = 0
KTA1 121404Z 12005KT M04/M11 A3028 RMK A01 T10401105  RH  061%=      5-min Rain = 0
KTA1 121405Z 13005KT M04/M11 A3028 RMK A01 T10401105  RH  061%=      5-min Rain = 0
KTA1 121406Z 13005KT M04/M11 A3028 RMK A01 T10401105  RH  061%=      5-min Rain = 0
KTA1 121407Z 13005KT M04/M11 A3028 RMK A01 T10401105  RH  061%=      5-min Rain = 0
KTA1 121408Z 13005KT M04/M11 A3028 RMK A01 T10401105  RH  061%=      5-min Rain = 0
KTA1 121409Z 13005KT M04/M11 A3028 RMK A01 T10401105  RH  060%=      5-min Rain = 0
KTA1 121410Z 13005KT M04/M11 A3028 RMK A01 T10391105  RH  060%=      5-min Rain = 0
KTA1 121411Z 12005KT M04/M11 A3028 RMK A01 T10391105  RH  060%=      5-min Rain = 0
KTA1 121412Z 12005KT M04/M11 A3028 RMK A01 T10391105  RH  060%=      5-min Rain = 0
KTA1 121413Z 12005KT M04/M11 A3028 RMK A01 T10391105  RH  060%=      5-min Rain = 0
KTA1 121414Z 13005KT M04/M11 A3028 RMK A01 T10381105  RH  060%=      5-min Rain = 0
KTA1 121415Z 13005KT M04/M11 A3028 RMK A01 T10381105  RH  060%=      5-min Rain = 0
KTA1 121416Z 14005KT M04/M11 A3028 RMK A01 T10381105  RH  060%=      5-min Rain = 0
KTA1 121417Z 14005KT M04/M11 A3028 RMK A01 T10371105  RH  059%=      5-min Rain = 0
KTA1 121418Z 14005KT M04/M10 A3028 RMK A01 T10361104  RH  059%=      5-min Rain = 0
KTA1 121419Z 13005KT M04/M10 A3028 RMK A01 T10361104  RH  059%=      5-min Rain = 0
KTA1 121420Z 13005KT M04/M10 A3028 RMK A01 T10351104  RH  059%=      5-min Rain = 0
KTA1 121421Z 13004KT M03/M10 A3028 RMK A01 T10341103  RH  059%=      5-min Rain = 0
KTA1 121422Z 13004KT M03/M10 A3028 RMK A01 T10341103  RH  059%=      5-min Rain = 0
KTA1 121423Z 14004KT M03/M10 A3028 RMK A01 T10331102  RH  059%=      5-min Rain = 0
KTA1 121424Z 14004KT M03/M10 A3028 RMK A01 T10321102  RH  058%=      5-min Rain = 0
KTA1 121425Z 14004KT M03/M10 A3028 RMK A01 T10311102  RH  058%=      5-min Rain = 0
KTA1 121426Z 14003KT M03/M10 A3028 RMK A01 T10301101  RH  058%=      5-min Rain = 0
KTA1 121427Z 14003KT M03/M10 A3028 RMK A01 T10291101  RH  057%=      5-min Rain = 0
KTA1 121428Z 14004KT M03/M10 A3028 RMK A01 T10281101  RH  057%=      5-min Rain = 0
KTA1 121429Z 14004KT M03/M10 A3029 RMK A01 T10271101  RH  057%=      5-min Rain = 0
KTA1 121430Z 14004KT M03/M10 A3029 RMK A01 T10251100  RH  056%=      5-min Rain = 0
KTA1 121431Z 14004KT M02/M10 A3029 RMK A01 T10241100  RH  056%=      5-min Rain = 0
KTA1 121432Z 13003KT M02/M10 A3029 RMK A01 T10231100  RH  056%=      5-min Rain = 0
KTA1 121433Z 12003KT M02/M10 A3029 RMK A01 T10221099  RH  056%=      5-min Rain = 0
KTA1 121434Z 12004KT M02/M10 A3029 RMK A01 T10221099  RH  055%=      5-min Rain = 0
KTA1 121435Z 12004KT M02/M10 A3029 RMK A01 T10221099  RH  055%=      5-min Rain = 0
KTA1 121436Z 13004KT M02/M10 A3029 RMK A01 T10221100  RH  055%=      5-min Rain = 0
KTA1 121437Z 14003KT M02/M10 A3029 RMK A01 T10221100  RH  055%=      5-min Rain = 0
KTA1 121438Z 14003KT M02/M10 A3029 RMK A01 T10211099  RH  055%=      5-min Rain = 0
KTA1 121439Z 14002KT M02/M10 A3029 RMK A01 T10201099  RH  055%=      5-min Rain = 0
KTA1 121440Z 14003KT M02/M10 A3029 RMK A01 T10191099  RH  054%=      5-min Rain = 0
KTA1 121441Z 14003KT M02/M10 A3029 RMK A01 T10191099  RH  054%=      5-min Rain = 0
KTA1 121442Z 14003KT M02/M10 A3029 RMK A01 T10181098  RH  054%=      5-min Rain = 0
KTA1 121443Z 14004KT M02/M10 A3029 RMK A01 T10161098  RH  054%=      5-min Rain = 0
KTA1 121444Z 14004KT M02/M10 A3029 RMK A01 T10161098  RH  054%=      5-min Rain = 0
KTA1 121445Z 14004KT M02/M10 A3029 RMK A01 T10151098  RH  053%=      5-min Rain = 0
KTA1 121446Z 14004KT M02/M10 A3029 RMK A01 T10151098  RH  053%=      5-min Rain = 0
KTA1 121447Z 14004KT M01/M10 A3029 RMK A01 T10141097  RH  053%=      5-min Rain = 0
KTA1 121448Z 14004KT M01/M10 A3029 RMK A01 T10141097  RH  053%=      5-min Rain = 0
KTA1 121449Z 14004KT M01/M10 A3029 RMK A01 T10131096  RH  053%=      5-min Rain = 0
KTA1 121450Z 14004KT M01/M10 A3029 RMK A01 T10121095  RH  053%=      5-min Rain = 0
KTA1 121451Z 14005KT M01/M10 A3029 RMK A01 T10121095  RH  053%=      5-min Rain = 0
KTA1 121452Z 15004KT M01/M10 A3029 RMK A01 T10111095  RH  053%=      5-min Rain = 0
KTA1 121453Z 14004KT M01/M09 A3029 RMK A01 T10101094  RH  053%=      5-min Rain = 0
KTA1 121454Z 15006KT M01/M09 A3029 RMK A01 T10091094  RH  053%=      5-min Rain = 0
KTA1 121455Z 15006KT M01/M10 A3029 RMK A01 T10091095  RH  052%=      5-min Rain = 0
KTA1 121456Z 14006KT M01/M10 A3029 RMK A01 T10081095  RH  052%=      5-min Rain = 0
KTA1 121457Z 14005KT M01/M09 A3029 RMK A01 T10081094  RH  052%=      5-min Rain = 0
KTA1 121458Z 14005KT M01/M10 A3029 RMK A01 T10081095  RH  052%=      5-min Rain = 0
KTA1 121459Z 14006KT M01/M09 A3029 RMK A01 T10071094  RH  052%=      5-min Rain = 0
KTA1 121500Z 14006KT M01/M09 A3029 RMK A01 T10061094  RH  051%=      5-min Rain = 0
KTA1 121501Z 13005KT M01/M09 A3028 RMK A01 T10071094  RH  052%=      5-min Rain = 0
KTA1 121502Z 14006KT M01/M09 A3028 RMK A01 T10061093  RH  052%=      5-min Rain = 0
KTA1 121503Z 14006KT M01/M09 A3028 RMK A01 T10051093  RH  051%=      5-min Rain = 0
KTA1 121504Z 14006KT M01/M09 A3028 RMK A01 T10051093  RH  052%=      5-min Rain = 0
KTA1 121505Z 14005KT M00/M09 A3028 RMK A01 T10041092  RH  052%=      5-min Rain = 0
KTA1 121506Z 14006KT M00/M09 A3028 RMK A01 T10021091  RH  051%=      5-min Rain = 0
KTA1 121507Z 14006KT 00/09 A3028 RMK A01 T00-00-90  RH  051%=      5-min Rain = 0
KTA1 121508Z 14007KT 00/M09 A3028 RMK A01 T00011090  RH  050%=      5-min Rain = 0
KTA1 121509Z 14007KT 00/M09 A3028 RMK A01 T00021090  RH  050%=      5-min Rain = 0
KTA1 121510Z 14007KT 00/M09 A3028 RMK A01 T00031091  RH  050%=      5-min Rain = 0
KTA1 121511Z 13009KT 00/M09 A3028 RMK A01 T00031092  RH  049%=      5-min Rain = 0
KTA1 121512Z 14008KT 00/M09 A3028 RMK A01 T00041092  RH  048%=      5-min Rain = 0
KTA1 121513Z 14008KT 01/M09 A3028 RMK A01 T00051092  RH  048%=      5-min Rain = 0
KTA1 121514Z 14007KT 01/M09 A3028 RMK A01 T00061092  RH  048%=      5-min Rain = 0
KTA1 121515Z 14009KT 01/M09 A3028 RMK A01 T00061092  RH  048%=      5-min Rain = 0
KTA1 121516Z 15010KT 01/M09 A3028 RMK A01 T00071093  RH  047%=      5-min Rain = 0
KTA1 121517Z 14009KT 01/M09 A3028 RMK A01 T00071094  RH  047%=      5-min Rain = 0
KTA1 121518Z 14010KT 01/M09 A3028 RMK A01 T00081094  RH  047%=      5-min Rain = 0
KTA1 121519Z 14011KT 01/M09 A3027 RMK A01 T00081094  RH  047%=      5-min Rain = 0
KTA1 121520Z 14011KT 01/M10 A3027 RMK A01 T00081095  RH  046%=      5-min Rain = 0
KTA1 121521Z 14012KT 01/M10 A3027 RMK A01 T00081095  RH  046%=      5-min Rain = 0
KTA1 121522Z 14012KT 01/M10 A3027 RMK A01 T00081096  RH  046%=      5-min Rain = 0
KTA1 121523Z 14012KT 01/M10 A3027 RMK A01 T00091096  RH  045%=      5-min Rain = 0
KTA1 121524Z 14013KT 01/M10 A3027 RMK A01 T00091097  RH  045%=      5-min Rain = 0
KTA1 121525Z 14011KT 01/M10 A3027 RMK A01 T00091097  RH  045%=      5-min Rain = 0
KTA1 121526Z 14011KT 01/M10 A3027 RMK A01 T00101097  RH  045%=      5-min Rain = 0
KTA1 121527Z 14011KT 01/M10 A3027 RMK A01 T00121096  RH  044%=      5-min Rain = 0
KTA1 121528Z 14012KT 01/M10 A3027 RMK A01 T00121097  RH  044%=      5-min Rain = 0
KTA1 121529Z 13012KT 01/M10 A3027 RMK A01 T00131099  RH  043%=      5-min Rain = 0
KTA1 121530Z 13011KT 01/M10 A3027 RMK A01 T00141098  RH  043%=      5-min Rain = 0
KTA1 121531Z 13011KT 02/M10 A3027 RMK A01 T00151098  RH  043%=      5-min Rain = 0
KTA1 121532Z 13011KT 02/M10 A3027 RMK A01 T00151098  RH  043%=      5-min Rain = 0
KTA1 121533Z 14010KT 02/M10 A3027 RMK A01 T00151097  RH  043%=      5-min Rain = 0
KTA1 121534Z 14011KT 02/M10 A3027 RMK A01 T00171097  RH  043%=      5-min Rain = 0
KTA1 121535Z 13011KT 02/M10 A3027 RMK A01 T00181097  RH  042%=      5-min Rain = 0
KTA1 121536Z 13012KT 02/M10 A3027 RMK A01 T00191097  RH  042%=      5-min Rain = 0
KTA1 121537Z 13012KT 02/M10 A3027 RMK A01 T00191099  RH  041%=      5-min Rain = 0
KTA1 121538Z 13011KT 02/M10 A3027 RMK A01 T00191099  RH  041%=      5-min Rain = 0
KTA1 121539Z 13010KT 02/M10 A3027 RMK A01 T00191098  RH  041%=      5-min Rain = 0
KTA1 121540Z 13010KT 02/M10 A3027 RMK A01 T00201098  RH  041%=      5-min Rain = 0
KTA1 121541Z 13008KT 02/M10 A3028 RMK A01 T00201098  RH  041%=      5-min Rain = 0
KTA1 121542Z 13009KT 02/M10 A3028 RMK A01 T00221097  RH  041%=      5-min Rain = 0
KTA1 121543Z 13010KT 02/M10 A3028 RMK A01 T00221097  RH  041%=      5-min Rain = 0
KTA1 121544Z 14011KT 02/M10 A3028 RMK A01 T00221097  RH  041%=      5-min Rain = 0
KTA1 121545Z 14010KT 02/M10 A3027 RMK A01 T00221097  RH  041%=      5-min Rain = 0
KTA1 121546Z 14011KT 02/M10 A3027 RMK A01 T00221097  RH  041%=      5-min Rain = 0
KTA1 121547Z 14011KT 02/M10 A3027 RMK A01 T00231097  RH  041%=      5-min Rain = 0
KTA1 121548Z 14010KT 02/M10 A3027 RMK A01 T00241097  RH  041%=      5-min Rain = 0
KTA1 121549Z 14011KT 03/M10 A3027 RMK A01 T00251096  RH  040%=      5-min Rain = 0
KTA1 121550Z 14011KT 03/M10 A3027 RMK A01 T00251097  RH  040%=      5-min Rain = 0
KTA1 121551Z 14012KT 03/M10 A3027 RMK A01 T00251097  RH  040%=      5-min Rain = 0
KTA1 121552Z 15011KT 03/M10 A3027 RMK A01 T00251096  RH  040%=      5-min Rain = 0
KTA1 121553Z 14010KT 03/M10 A3027 RMK A01 T00251096  RH  040%=      5-min Rain = 0
KTA1 121554Z 13010KT 03/M10 A3027 RMK A01 T00261095  RH  040%=      5-min Rain = 0
KTA1 121555Z 14010KT 03/M10 A3027 RMK A01 T00261096  RH  040%=      5-min Rain = 0
KTA1 121556Z 15009KT 03/M10 A3028 RMK A01 T00271095  RH  040%=      5-min Rain = 0
KTA1 121557Z 15011KT 03/M09 A3028 RMK A01 T00291093  RH  041%=      5-min Rain = 0
KTA1 121558Z 15010KT 03/M09 A3028 RMK A01 T00301093  RH  040%=      5-min Rain = 0
KTA1 121559Z 15009KT 03/M09 A3028 RMK A01 T00301093  RH  040%=      5-min Rain = 0
KTA1 121600Z 14010KT 03/M09 A3028 RMK A01 T00301093  RH  040%=      5-min Rain = 0
KTA1 121601Z 13010KT 03/M09 A3028 RMK A01 T00301093  RH  040%=      5-min Rain = 0
KTA1 121602Z 14008KT 03/M09 A3028 RMK A01 T00301092  RH  040%=      5-min Rain = 0
KTA1 121603Z 15011KT 03/M09 A3028 RMK A01 T00321091  RH  040%=      5-min Rain = 0
KTA1 121604Z 15010KT 03/M09 A3028 RMK A01 T00321091  RH  040%=      5-min Rain = 0
KTA1 121605Z 15010KT 03/M09 A3028 RMK A01 T00321091  RH  040%=      5-min Rain = 0
KTA1 121606Z 15011KT 03/M09 A3028 RMK A01 T00321090  RH  040%=      5-min Rain = 0
KTA1 121607Z 15011KT 03/M09 A3028 RMK A01 T00331089  RH  040%=      5-min Rain = 0
KTA1 121608Z 14010KT 03/M09 A3028 RMK A01 T00331090  RH  040%=      5-min Rain = 0
KTA1 121609Z 15009KT 03/M09 A3028 RMK A01 T00331089  RH  041%=      5-min Rain = 0
KTA1 121610Z 15009KT 03/M09 A3028 RMK A01 T00341087  RH  041%=      5-min Rain = 0
KTA1 121611Z 15008KT 04/M09 A3028 RMK A01 T00361086  RH  040%=      5-min Rain = 0
KTA1 121612Z 15008KT 04/M09 A3028 RMK A01 T00381086  RH  040%=      5-min Rain = 0
KTA1 121613Z 15009KT 04/M09 A3028 RMK A01 T00391086  RH  040%=      5-min Rain = 0
KTA1 121614Z 16008KT 04/M09 A3028 RMK A01 T00381087  RH  040%=      5-min Rain = 0
KTA1 121615Z 15007KT 04/M09 A3028 RMK A01 T00381086  RH  040%=      5-min Rain = 0
KTA1 121616Z 15010KT 04/M09 A3028 RMK A01 T00401085  RH  040%=      5-min Rain = 0
KTA1 121617Z 15012KT 04/M09 A3027 RMK A01 T00401086  RH  039%=      5-min Rain = 0
KTA1 121618Z 15012KT 04/M09 A3027 RMK A01 T00381088  RH  039%=      5-min Rain = 0
KTA1 121619Z 15011KT 04/M09 A3027 RMK A01 T00361088  RH  040%=      5-min Rain = 0
KTA1 121620Z 14011KT 04/M09 A3027 RMK A01 T00361088  RH  040%=      5-min Rain = 0
KTA1 121621Z 14012KT 04/M09 A3027 RMK A01 T00351088  RH  040%=      5-min Rain = 0
KTA1 121622Z 14012KT 04/M09 A3027 RMK A01 T00351087  RH  040%=      5-min Rain = 0
KTA1 121623Z 14012KT 04/M09 A3027 RMK A01 T00361087  RH  040%=      5-min Rain = 0
KTA1 121624Z 14012KT 04/M09 A3027 RMK A01 T00351088  RH  040%=      5-min Rain = 0
KTA1 121625Z 15011KT 04/M09 A3027 RMK A01 T00351088  RH  040%=      5-min Rain = 0
KTA1 121626Z 15012KT 04/M09 A3027 RMK A01 T00351088  RH  040%=      5-min Rain = 0
KTA1 121627Z 14012KT 04/M09 A3027 RMK A01 T00371088  RH  040%=      5-min Rain = 0
KTA1 121628Z 13011KT 04/M09 A3027 RMK A01 T00361088  RH  040%=      5-min Rain = 0
KTA1 121629Z 14011KT 04/M09 A3027 RMK A01 T00361088  RH  040%=      5-min Rain = 0
KTA1 121630Z 14011KT 04/M09 A3027 RMK A01 T00361088  RH  040%=      5-min Rain = 0
KTA1 121631Z 14011KT 04/M09 A3027 RMK A01 T00361088  RH  040%=      5-min Rain = 0
KTA1 121632Z 13011KT 04/M09 A3027 RMK A01 T00361088  RH  040%=      5-min Rain = 0
KTA1 121633Z 13012KT 04/M09 A3027 RMK A01 T00361088  RH  040%=      5-min Rain = 0
KTA1 121634Z 14011KT 04/M09 A3027 RMK A01 T00361088  RH  040%=      5-min Rain = 0
KTA1 121635Z 15009KT 04/M09 A3027 RMK A01 T00361088  RH  040%=      5-min Rain = 0
KTA1 121636Z 15009G14KT 04/M09 A3027 RMK A01 T00361088  RH  040%=      5-min Rain = 0
KTA1 121637Z 14012KT 04/M09 A3027 RMK A01 T00381087  RH  040%=      5-min Rain = 0
KTA1 121638Z 13012KT 04/M09 A3027 RMK A01 T00391087  RH  039%=      5-min Rain = 0
KTA1 121639Z 14010KT 04/M09 A3027 RMK A01 T00391087  RH  039%=      5-min Rain = 0
KTA1 121640Z 14011KT 04/M09 A3027 RMK A01 T00421085  RH  039%=      5-min Rain = 0
KTA1 121641Z 15010KT 04/M09 A3027 RMK A01 T00441087  RH  038%=      5-min Rain = 0
KTA1 121642Z 15009KT 04/M09 A3027 RMK A01 T00431088  RH  038%=      5-min Rain = 0
KTA1 121643Z 14012KT 04/M09 A3027 RMK A01 T00441087  RH  038%=      5-min Rain = 0
KTA1 121644Z 14013KT 04/M09 A3027 RMK A01 T00441089  RH  037%=      5-min Rain = 0
KTA1 121645Z 14014KT 04/M09 A3027 RMK A01 T00431091  RH  037%=      5-min Rain = 0
KTA1 121646Z 14011KT 04/M09 A3027 RMK A01 T00421091  RH  037%=      5-min Rain = 0
KTA1 121647Z 15011KT 04/M09 A3027 RMK A01 T00421089  RH  038%=      5-min Rain = 0
KTA1 121648Z 15012KT 05/M09 A3027 RMK A01 T00451090  RH  037%=      5-min Rain = 0
KTA1 121649Z 15012KT 05/M09 A3027 RMK A01 T00461091  RH  036%=      5-min Rain = 0
KTA1 121650Z 15009KT 05/M09 A3027 RMK A01 T00461092  RH  036%=      5-min Rain = 0
KTA1 121651Z 15010KT 05/M09 A3026 RMK A01 T00471092  RH  036%=      5-min Rain = 0
KTA1 121652Z 15012KT 05/M09 A3026 RMK A01 T00481091  RH  036%=      5-min Rain = 0
KTA1 121653Z 14011KT 05/M09 A3026 RMK A01 T00471092  RH  036%=      5-min Rain = 0
KTA1 121654Z 15012KT 05/M09 A3026 RMK A01 T00471092  RH  036%=      5-min Rain = 0
KTA1 121655Z 14010KT 05/M09 A3026 RMK A01 T00471093  RH  035%=      5-min Rain = 0
KTA1 121656Z 14010KT 05/M09 A3027 RMK A01 T00481093  RH  035%=      5-min Rain = 0
KTA1 121657Z 13012KT 05/M09 A3027 RMK A01 T00491093  RH  035%=      5-min Rain = 0
KTA1 121658Z 13012KT 05/M09 A3027 RMK A01 T00491094  RH  035%=      5-min Rain = 0
KTA1 121659Z 14012KT 05/M09 A3027 RMK A01 T00491094  RH  035%=      5-min Rain = 0
KTA1 121700Z 14013KT 05/M10 A3027 RMK A01 T00501097  RH  033%=      5-min Rain = 0
KTA1 121701Z 15011KT 05/M10 A3027 RMK A01 T00511100  RH  033%=      5-min Rain = 0
KTA1 121702Z 15011KT 05/M10 A3026 RMK A01 T00511099  RH  033%=      5-min Rain = 0
KTA1 121703Z 15011KT 05/M10 A3026 RMK A01 T00501099  RH  033%=      5-min Rain = 0
KTA1 121704Z 13009KT 05/M10 A3026 RMK A01 T00501098  RH  034%=      5-min Rain = 0
KTA1 121705Z 13012KT 05/M10 A3026 RMK A01 T00511095  RH  034%=      5-min Rain = 0
KTA1 121706Z 13011KT 05/M10 A3026 RMK A01 T00521097  RH  033%=      5-min Rain = 0
KTA1 121707Z 14011KT 05/M10 A3026 RMK A01 T00511097  RH  033%=      5-min Rain = 0
KTA1 121708Z 13008KT 05/M10 A3026 RMK A01 T00521095  RH  034%=      5-min Rain = 0
KTA1 121709Z 14008KT 06/M10 A3026 RMK A01 T00551095  RH  033%=      5-min Rain = 0
KTA1 121710Z 14011KT 06/M10 A3026 RMK A01 T00581098  RH  032%=      5-min Rain = 0
KTA1 121711Z 14012KT 06/M10 A3026 RMK A01 T00591101  RH  031%=      5-min Rain = 0
KTA1 121712Z 15011KT 06/M10 A3026 RMK A01 T00591102  RH  031%=      5-min Rain = 0
KTA1 121713Z 15010KT 06/M10 A3026 RMK A01 T00581101  RH  031%=      5-min Rain = 0
KTA1 121714Z 14010KT 06/M10 A3026 RMK A01 T00581099  RH  031%=      5-min Rain = 0
KTA1 121715Z 13010KT 06/M10 A3026 RMK A01 T00591099  RH  031%=      5-min Rain = 0
KTA1 121716Z 14010KT 06/M10 A3026 RMK A01 T00591100  RH  031%=      5-min Rain = 0
KTA1 121717Z 14011KT 06/M10 A3026 RMK A01 T00591099  RH  031%=      5-min Rain = 0
KTA1 121718Z 13010KT 06/M10 A3026 RMK A01 T00581099  RH  031%=      5-min Rain = 0
KTA1 121719Z 12010KT 06/M10 A3026 RMK A01 T00581100  RH  031%=      5-min Rain = 0
KTA1 121720Z 14011KT 06/M10 A3026 RMK A01 T00601099  RH  031%=      5-min Rain = 0
KTA1 121721Z 14011KT 06/M10 A3026 RMK A01 T00611099  RH  031%=      5-min Rain = 0
KTA1 121722Z 13011KT 06/M10 A3026 RMK A01 T00601102  RH  030%=      5-min Rain = 0
KTA1 121723Z 13011KT 06/M10 A3026 RMK A01 T00601104  RH  030%=      5-min Rain = 0
KTA1 121724Z 12010KT 06/M10 A3026 RMK A01 T00601104  RH  030%=      5-min Rain = 0
KTA1 121725Z 12013KT 06/M10 A3026 RMK A01 T00601103  RH  030%=      5-min Rain = 0
KTA1 121726Z 13012KT 06/M10 A3026 RMK A01 T00611102  RH  030%=      5-min Rain = 0
KTA1 121727Z 13011KT 06/M10 A3026 RMK A01 T00611102  RH  030%=      5-min Rain = 0
KTA1 121728Z 14009KT 06/M10 A3026 RMK A01 T00621102  RH  030%=      5-min Rain = 0
KTA1 121729Z 13010KT 06/M10 A3025 RMK A01 T00621101  RH  030%=      5-min Rain = 0
KTA1 121730Z 14011KT 06/M10 A3025 RMK A01 T00641100  RH  030%=      5-min Rain = 0
KTA1 121731Z 14010KT 06/M10 A3025 RMK A01 T00631102  RH  030%=      5-min Rain = 0
KTA1 121732Z 12012KT 06/M10 A3025 RMK A01 T00621102  RH  030%=      5-min Rain = 0
KTA1 121733Z 13009KT 06/M10 A3025 RMK A01 T00621103  RH  030%=      5-min Rain = 0
KTA1 121734Z 14010KT 06/M10 A3025 RMK A01 T00621102  RH  030%=      5-min Rain = 0
KTA1 121735Z 13011KT 06/M10 A3025 RMK A01 T00641101  RH  030%=      5-min Rain = 0
KTA1 121736Z 13010KT 07/M10 A3025 RMK A01 T00651100  RH  030%=      5-min Rain = 0
KTA1 121737Z 14011KT 07/M10 A3025 RMK A01 T00661100  RH  030%=      5-min Rain = 0
KTA1 121738Z 14012KT 07/M10 A3025 RMK A01 T00681102  RH  029%=      5-min Rain = 0
KTA1 121739Z 14013KT 07/M10 A3025 RMK A01 T00671104  RH  028%=      5-min Rain = 0
KTA1 121740Z 14011KT 07/M10 A3025 RMK A01 T00651104  RH  029%=      5-min Rain = 0
KTA1 121741Z 15008KT 06/M11 A3025 RMK A01 T00641105  RH  029%=      5-min Rain = 0
KTA1 121742Z 14012KT 06/M10 A3025 RMK A01 T00641103  RH  029%=      5-min Rain = 0
KTA1 121743Z 13011KT 07/M10 A3025 RMK A01 T00661102  RH  029%=      5-min Rain = 0
KTA1 121744Z 14009KT 07/M10 A3025 RMK A01 T00671101  RH  029%=      5-min Rain = 0
KTA1 121745Z 14011KT 07/M10 A3025 RMK A01 T00701100  RH  029%=      5-min Rain = 0
KTA1 121746Z 14013KT 07/M10 A3025 RMK A01 T00691104  RH  028%=      5-min Rain = 0
KTA1 121747Z 15012KT 07/M11 A3025 RMK A01 T00671106  RH  028%=      5-min Rain = 0
KTA1 121748Z 15010KT 07/M11 A3024 RMK A01 T00671107  RH  028%=      5-min Rain = 0
KTA1 121749Z 14010KT 07/M11 A3024 RMK A01 T00671106  RH  028%=      5-min Rain = 0
KTA1 121750Z 14012KT 07/M11 A3024 RMK A01 T00681105  RH  028%=      5-min Rain = 0
KTA1 121751Z 14012KT 07/M11 A3024 RMK A01 T00691105  RH  028%=      5-min Rain = 0
KTA1 121752Z 15013KT 07/M11 A3024 RMK A01 T00711105  RH  027%=      5-min Rain = 0
KTA1 121753Z 15012KT 07/M11 A3024 RMK A01 T00701106  RH  027%=      5-min Rain = 0
KTA1 121754Z 15009KT 07/M11 A3024 RMK A01 T00691107  RH  027%=      5-min Rain = 0
KTA1 121755Z 15011KT 07/M11 A3024 RMK A01 T00681105  RH  028%=      5-min Rain = 0
KTA1 121756Z 13013KT 07/M11 A3024 RMK A01 T00691106  RH  027%=      5-min Rain = 0
KTA1 121757Z 15010KT 07/M11 A3024 RMK A01 T00701105  RH  027%=      5-min Rain = 0
KTA1 121758Z 15011KT 07/M11 A3023 RMK A01 T00721106  RH  027%=      5-min Rain = 0
KTA1 121759Z 13013KT 07/M11 A3023 RMK A01 T00731107  RH  027%=      5-min Rain = 0
KTA1 121800Z 15011KT 07/M11 A3023 RMK A01 T00721109  RH  026%=      5-min Rain = 0
KTA1 121801Z 14011KT 07/M11 A3023 RMK A01 T00711108  RH  027%=      5-min Rain = 0
KTA1 121802Z 17011KT 07/M11 A3023 RMK A01 T00731108  RH  026%=      5-min Rain = 0
KTA1 121803Z 16014KT 07/M11 A3023 RMK A01 T00731109  RH  026%=      5-min Rain = 0
KTA1 121804Z 16014KT 07/M11 A3023 RMK A01 T00741108  RH  026%=      5-min Rain = 0
KTA1 121805Z 16012KT 08/M11 A3023 RMK A01 T00761107  RH  026%=      5-min Rain = 0
KTA1 121806Z 16011KT 08/M11 A3023 RMK A01 T00751110  RH  026%=      5-min Rain = 0
KTA1 121807Z 16012KT 07/M11 A3023 RMK A01 T00741108  RH  026%=      5-min Rain = 0
KTA1 121808Z 15012KT 08/M11 A3023 RMK A01 T00761107  RH  026%=      5-min Rain = 0
KTA1 121809Z 16010KT 08/M11 A3023 RMK A01 T00751107  RH  026%=      5-min Rain = 0
KTA1 121810Z 16010KT 07/M11 A3023 RMK A01 T00741107  RH  026%=      5-min Rain = 0
KTA1 121811Z 16011KT 08/M11 A3022 RMK A01 T00761106  RH  026%=      5-min Rain = 0
KTA1 121812Z 17011KT 08/M11 A3022 RMK A01 T00781106  RH  026%=      5-min Rain = 0
KTA1 121813Z 15013KT 08/M11 A3022 RMK A01 T00801105  RH  026%=      5-min Rain = 0
KTA1 121814Z 15013KT 08/M11 A3022 RMK A01 T00811105  RH  025%=      5-min Rain = 0
KTA1 121815Z 16012KT 08/M11 A3022 RMK A01 T00811106  RH  025%=      5-min Rain = 0
KTA1 121816Z 14011KT 08/M11 A3022 RMK A01 T00801106  RH  025%=      5-min Rain = 0
KTA1 121817Z 15014KT 08/M11 A3022 RMK A01 T00801106  RH  026%=      5-min Rain = 0
KTA1 121818Z 14015KT 08/M11 A3022 RMK A01 T00791107  RH  025%=      5-min Rain = 0
KTA1 121819Z 15011KT 08/M11 A3022 RMK A01 T00781108  RH  025%=      5-min Rain = 0
KTA1 121820Z 15010KT 08/M11 A3022 RMK A01 T00771107  RH  026%=      5-min Rain = 0
KTA1 121821Z 15010KT 08/M10 A3022 RMK A01 T00811104  RH  026%=      5-min Rain = 0
KTA1 121822Z 14011KT 08/M10 A3022 RMK A01 T00831104  RH  025%=      5-min Rain = 0
KTA1 121823Z 14011KT 08/M10 A3022 RMK A01 T00841104  RH  025%=      5-min Rain = 0
KTA1 121824Z 17012KT 09/M10 A3022 RMK A01 T00851104  RH  025%=      5-min Rain = 0
KTA1 121825Z 16014KT 09/M10 A3022 RMK A01 T00861103  RH  025%=      5-min Rain = 0
KTA1 121826Z 17013KT 08/M11 A3022 RMK A01 T00841105  RH  025%=      5-min Rain = 0
KTA1 121827Z 18011KT 08/M11 A3022 RMK A01 T00821106  RH  025%=      5-min Rain = 0
KTA1 121828Z 17009KT 08/M11 A3022 RMK A01 T00821105  RH  025%=      5-min Rain = 0
KTA1 121829Z 17013KT 08/M10 A3021 RMK A01 T00831104  RH  025%=      5-min Rain = 0
KTA1 121830Z 18011KT 08/M11 A3021 RMK A01 T00831105  RH  025%=      5-min Rain = 0
KTA1 121831Z 16009KT 08/M10 A3021 RMK A01 T00821104  RH  025%=      5-min Rain = 0
KTA1 121832Z 15010KT 08/M10 A3021 RMK A01 T00831104  RH  025%=      5-min Rain = 0
KTA1 121833Z 16012KT 08/M10 A3021 RMK A01 T00841104  RH  025%=      5-min Rain = 0
KTA1 121834Z 16015KT 09/M10 A3021 RMK A01 T00861102  RH  025%=      5-min Rain = 0
KTA1 121835Z 16011KT 09/M10 A3021 RMK A01 T00851103  RH  025%=      5-min Rain = 0
KTA1 121836Z 15009G15KT 09/M10 A3021 RMK A01 T00861102  RH  025%=      5-min Rain = 0
KTA1 121837Z 17011KT 09/M10 A302 RMK A01 T00871100  RH  026%=      5-min Rain = 0
KTA1 121838Z 18013KT 09/M10 A302 RMK A01 T00881101  RH  025%=      5-min Rain = 0
KTA1 121839Z 17011KT 09/M10 A302 RMK A01 T00871101  RH  025%=      5-min Rain = 0
KTA1 121840Z 17009KT 09/M10 A302 RMK A01 T00861102  RH  025%=      5-min Rain = 0
KTA1 121841Z 16009KT 09/M10 A302 RMK A01 T00881098  RH  026%=      5-min Rain = 0
KTA1 121842Z 16013KT 09/M10 A302 RMK A01 T00891100  RH  025%=      5-min Rain = 0
KTA1 121843Z 17015KT 09/M10 A302 RMK A01 T00871099  RH  026%=      5-min Rain = 0
KTA1 121844Z 18013KT 09/M10 A302 RMK A01 T00851100  RH  026%=      5-min Rain = 0
KTA1 121845Z 18010KT 08/M10 A302 RMK A01 T00831100  RH  026%=      5-min Rain = 0
KTA1 121846Z 17010KT 09/M10 A302 RMK A01 T00851098  RH  026%=      5-min Rain = 0
KTA1 121847Z 17010KT 08/M10 A302 RMK A01 T00841100  RH  026%=      5-min Rain = 0
KTA1 121848Z 16013KT 09/M10 A302 RMK A01 T00851098  RH  026%=      5-min Rain = 0
KTA1 121849Z 16012KT 09/M10 A302 RMK A01 T00861098  RH  026%=      5-min Rain = 0
KTA1 121850Z 16009KT 09/M10 A302 RMK A01 T00861098  RH  026%=      5-min Rain = 0
KTA1 121851Z 16007KT 09/M10 A302 RMK A01 T00861098  RH  026%=      5-min Rain = 0
KTA1 121852Z 17009KT 09/M10 A3019 RMK A01 T00881096  RH  026%=      5-min Rain = 0
KTA1 121853Z 16008KT 09/M10 A3019 RMK A01 T00901097  RH  026%=      5-min Rain = 0
KTA1 121854Z 18008KT 09/M10 A3019 RMK A01 T00901098  RH  025%=      5-min Rain = 0
KTA1 121855Z 16010KT 09/M10 A3019 RMK A01 T00901097  RH  026%=      5-min Rain = 0
KTA1 121856Z 16015KT 09/M10 A3019 RMK A01 T00891098  RH  026%=      5-min Rain = 0
KTA1 121857Z 16014KT 09/M10 A3019 RMK A01 T00891099  RH  025%=      5-min Rain = 0
KTA1 121858Z 16011KT 09/M10 A3019 RMK A01 T00901099  RH  025%=      5-min Rain = 0
KTA1 121859Z 18015KT 09/M10 A3019 RMK A01 T00901098  RH  025%=      5-min Rain = 0
KTA1 121900Z 18014KT 09/M10 A3018 RMK A01 T00901099  RH  025%=      5-min Rain = 0
KTA1 121901Z 18011KT 09/M10 A3018 RMK A01 T00891100  RH  025%=      5-min Rain = 0
KTA1 121902Z 18010KT 09/M10 A3018 RMK A01 T00881099  RH  025%=      5-min Rain = 0
KTA1 121903Z 17012KT 09/M10 A3018 RMK A01 T00901098  RH  025%=      5-min Rain = 0
KTA1 121904Z 16010KT 09/M10 A3018 RMK A01 T00921096  RH  025%=      5-min Rain = 0
KTA1 121905Z 16013KT 10/M10 A3018 RMK A01 T00961095  RH  025%=      5-min Rain = 0
KTA1 121906Z 16009KT 10/M10 A3018 RMK A01 T00951097  RH  025%=      5-min Rain = 0
KTA1 121907Z 16008KT 09/M10 A3018 RMK A01 T00941097  RH  025%=      5-min Rain = 0
KTA1 121908Z 15010G15KT 09/M10 A3018 RMK A01 T00931097  RH  025%=      5-min Rain = 0
KTA1 121909Z 15013KT 09/M10 A3018 RMK A01 T00941097  RH  025%=      5-min Rain = 0
KTA1 121910Z 15011KT 10/M10 A3018 RMK A01 T00951097  RH  025%=      5-min Rain = 0
KTA1 121911Z 16009KT 10/M10 A3018 RMK A01 T00951098  RH  025%=      5-min Rain = 0
KTA1 121912Z 15011KT 09/M10 A3017 RMK A01 T00941099  RH  025%=      5-min Rain = 0
KTA1 121913Z 15011KT 09/M10 A3017 RMK A01 T00931098  RH  025%=      5-min Rain = 0
KTA1 121914Z 16011KT 10/M10 A3017 RMK A01 T00951096  RH  025%=      5-min Rain = 0
KTA1 121915Z 17011KT 10/M10 A3017 RMK A01 T00961096  RH  025%=      5-min Rain = 0
KTA1 121916Z 16011KT 09/M10 A3017 RMK A01 T00941097  RH  025%=      5-min Rain = 0
KTA1 121917Z 15012KT 10/M10 A3017 RMK A01 T00951096  RH  025%=      5-min Rain = 0
KTA1 121918Z 15011KT 10/M10 A3017 RMK A01 T00951096  RH  025%=      5-min Rain = 0
KTA1 121919Z 16011KT 10/M09 A3017 RMK A01 T00971094  RH  025%=      5-min Rain = 0
KTA1 121920Z 15013G18KT 10/M09 A3017 RMK A01 T01001094  RH  024%=      5-min Rain = 0
KTA1 121921Z 16011KT 10/M10 A3017 RMK A01 T00971098  RH  024%=      5-min Rain = 0
KTA1 121922Z 16014KT 10/M10 A3016 RMK A01 T00971096  RH  025%=      5-min Rain = 0
KTA1 121923Z 16013KT 10/M09 A3016 RMK A01 T00981094  RH  025%=      5-min Rain = 0
KTA1 121924Z 17013KT 10/M10 A3016 RMK A01 T00981097  RH  024%=      5-min Rain = 0
KTA1 121925Z 17011KT 10/M10 A3016 RMK A01 T00951097  RH  025%=      5-min Rain = 0
KTA1 121926Z 18010KT 10/M10 A3016 RMK A01 T00951096  RH  025%=      5-min Rain = 0
KTA1 121927Z 17009KT 10/M10 A3016 RMK A01 T00961096  RH  025%=      5-min Rain = 0
KTA1 121928Z 16012KT 10/M09 A3016 RMK A01 T00981094  RH  025%=      5-min Rain = 0
KTA1 121929Z 16014KT 10/M10 A3016 RMK A01 T00991095  RH  025%=      5-min Rain = 0
KTA1 121930Z 17012KT 10/M10 A3016 RMK A01 T00981097  RH  024%=      5-min Rain = 0
KTA1 121931Z 17011KT 10/M10 A3015 RMK A01 T00971096  RH  025%=      5-min Rain = 0
KTA1 121932Z 16011KT 10/M10 A3015 RMK A01 T00991095  RH  024%=      5-min Rain = 0
KTA1 121933Z 16012KT 10/M09 A3015 RMK A01 T01011093  RH  024%=      5-min Rain = 0
KTA1 121934Z 16011KT 10/M09 A3015 RMK A01 T01011094  RH  024%=      5-min Rain = 0
KTA1 121935Z 15010KT 10/M09 A3015 RMK A01 T01031093  RH  024%=      5-min Rain = 0
KTA1 121936Z 16012KT 10/M09 A3015 RMK A01 T01041094  RH  024%=      5-min Rain = 0
KTA1 121937Z 16010KT 10/M09 A3015 RMK A01 T01041094  RH  024%=      5-min Rain = 0
KTA1 121938Z 16011KT 10/M10 A3015 RMK A01 T01031095  RH  024%=      5-min Rain = 0
KTA1 121939Z 16014KT 10/M09 A3015 RMK A01 T01031094  RH  024%=      5-min Rain = 0
KTA1 121940Z 15013KT 10/M10 A3015 RMK A01 T01021095  RH  024%=      5-min Rain = 0
KTA1 121941Z 16012KT 10/M09 A3015 RMK A01 T01021094  RH  024%=      5-min Rain = 0
KTA1 121942Z 17011KT 10/M09 A3015 RMK A01 T01031092  RH  024%=      5-min Rain = 0
KTA1 121943Z 17014KT 11/M09 A3015 RMK A01 T01051092  RH  024%=      5-min Rain = 0
KTA1 121944Z 18012KT 10/M10 A3015 RMK A01 T01041095  RH  024%=      5-min Rain = 0
KTA1 121945Z 16010KT 10/M09 A3014 RMK A01 T01021094  RH  024%=      5-min Rain = 0
KTA1 121946Z 17009KT 10/M09 A3014 RMK A01 T01041093  RH  024%=      5-min Rain = 0
KTA1 121947Z 18010KT 11/M09 A3014 RMK A01 T01061091  RH  024%=      5-min Rain = 0
KTA1 121948Z 18010KT 11/M09 A3014 RMK A01 T01051092  RH  024%=      5-min Rain = 0
KTA1 121949Z 17011KT 10/M09 A3014 RMK A01 T01041091  RH  024%=      5-min Rain = 0
KTA1 121950Z 17010KT 11/M09 A3014 RMK A01 T01051091  RH  024%=      5-min Rain = 0
KTA1 121951Z 16013KT 11/M09 A3014 RMK A01 T01061091  RH  024%=      5-min Rain = 0
KTA1 121952Z 16011KT 11/M09 A3014 RMK A01 T01061093  RH  024%=      5-min Rain = 0
KTA1 121953Z 15012G17KT 11/M09 A3014 RMK A01 T01051092  RH  024%=      5-min Rain = 0
KTA1 121954Z 17013KT 11/M09 A3014 RMK A01 T01061089  RH  025%=      5-min Rain = 0
KTA1 121955Z 17010KT 11/M09 A3014 RMK A01 T01071089  RH  024%=      5-min Rain = 0
KTA1 121956Z 16010KT 11/M09 A3014 RMK A01 T01061090  RH  024%=      5-min Rain = 0
KTA1 121957Z 16010KT 11/M09 A3014 RMK A01 T01081089  RH  024%=      5-min Rain = 0
KTA1 121958Z 17010KT 11/M09 A3014 RMK A01 T01091090  RH  024%=      5-min Rain = 0
KTA1 121959Z 19011KT 11/M09 A3014 RMK A01 T01101089  RH  024%=      5-min Rain = 0
KTA1 122000Z 18011KT 11/M09 A3014 RMK A01 T01091089  RH  024%=      5-min Rain = 0
KTA1 122001Z 17012KT 11/M09 A3014 RMK A01 T01081087  RH  024%=      5-min Rain = 0
KTA1 122002Z 17009KT 11/M09 A3014 RMK A01 T01091087  RH  024%=      5-min Rain = 0
KTA1 122003Z 17010KT 11/M08 A3014 RMK A01 T01111084  RH  025%=      5-min Rain = 0
KTA1 122004Z 16010KT 11/M09 A3014 RMK A01 T01141086  RH  024%=      5-min Rain = 0
KTA1 122005Z 17009KT 11/M09 A3014 RMK A01 T01141087  RH  024%=      5-min Rain = 0
KTA1 122006Z 16011KT 11/M09 A3014 RMK A01 T01111088  RH  024%=      5-min Rain = 0
KTA1 122007Z 15014KT 11/M09 A3014 RMK A01 T01101087  RH  024%=      5-min Rain = 0
KTA1 122008Z 18013KT 11/M09 A3013 RMK A01 T01101087  RH  024%=      5-min Rain = 0
KTA1 122009Z 17012KT 11/M09 A3013 RMK A01 T01111087  RH  024%=      5-min Rain = 0
KTA1 122010Z 17011KT 11/M09 A3013 RMK A01 T01101088  RH  024%=      5-min Rain = 0
KTA1 122011Z 18010KT 11/M09 A3013 RMK A01 T01091087  RH  024%=      5-min Rain = 0
KTA1 122012Z 17012KT 11/M08 A3013 RMK A01 T01111084  RH  025%=      5-min Rain = 0
KTA1 122013Z 18015KT 11/M08 A3013 RMK A01 T01131083  RH  025%=      5-min Rain = 0
KTA1 122014Z 19012G17KT 11/M08 A3013 RMK A01 T01141082  RH  025%=      5-min Rain = 0
KTA1 122015Z 19010KT 11/M08 A3013 RMK A01 T01141082  RH  025%=      5-min Rain = 0
KTA1 122016Z 18009KT 11/M08 A3013 RMK A01 T01141081  RH  025%=      5-min Rain = 0
KTA1 122017Z 19013KT 12/M08 A3013 RMK A01 T01161081  RH  024%=      5-min Rain = 0
KTA1 122018Z 20010KT 11/M08 A3013 RMK A01 T01141084  RH  024%=      5-min Rain = 0
KTA1 122019Z 18012KT 11/M08 A3013 RMK A01 T01111084  RH  025%=      5-min Rain = 0
KTA1 122020Z 17013KT 11/M08 A3013 RMK A01 T01131082  RH  025%=      5-min Rain = 0
KTA1 122021Z 17012KT 11/M08 A3013 RMK A01 T01131084  RH  024%=      5-min Rain = 0
KTA1 122022Z 17012KT 11/M08 A3013 RMK A01 T01131084  RH  024%=      5-min Rain = 0
KTA1 122023Z 16011KT 11/M08 A3013 RMK A01 T01141084  RH  024%=      5-min Rain = 0
KTA1 122024Z 16013KT 11/M08 A3013 RMK A01 T01141083  RH  024%=      5-min Rain = 0
KTA1 122025Z 16012KT 11/M08 A3013 RMK A01 T01141084  RH  024%=      5-min Rain = 0
KTA1 122026Z 17012KT 12/M08 A3013 RMK A01 T01151082  RH  024%=      5-min Rain = 0
KTA1 122027Z 19010KT 12/M08 A3013 RMK A01 T01161082  RH  024%=      5-min Rain = 0
KTA1 122028Z 19009KT 12/M08 A3013 RMK A01 T01161082  RH  024%=      5-min Rain = 0
KTA1 122029Z 18008KT 12/M08 A3013 RMK A01 T01151083  RH  024%=      5-min Rain = 0
KTA1 122030Z 18010KT 11/M08 A3013 RMK A01 T01141083  RH  024%=      5-min Rain = 0
KTA1 122031Z 18008KT 11/M08 A3013 RMK A01 T01141082  RH  025%=      5-min Rain = 0
KTA1 122032Z 16007KT 11/M08 A3013 RMK A01 T01131082  RH  025%=      5-min Rain = 0
KTA1 122033Z 15011KT 12/M08 A3013 RMK A01 T01161080  RH  024%=      5-min Rain = 0
KTA1 122034Z 14010KT 12/M08 A3013 RMK A01 T01171083  RH  024%=      5-min Rain = 0
KTA1 122035Z 18011KT 12/M08 A3013 RMK A01 T01181082  RH  024%=      5-min Rain = 0
KTA1 122036Z 18010KT 12/M08 A3013 RMK A01 T01191081  RH  024%=      5-min Rain = 0
KTA1 122037Z 17012KT 12/M08 A3012 RMK A01 T01181082  RH  024%=      5-min Rain = 0
KTA1 122038Z 17010KT 12/M08 A3012 RMK A01 T01181083  RH  024%=      5-min Rain = 0
KTA1 122039Z 16006KT 12/M08 A3012 RMK A01 T01161084  RH  024%=      5-min Rain = 0
KTA1 122040Z 15007KT 12/M08 A3012 RMK A01 T01161082  RH  024%=      5-min Rain = 0
KTA1 122041Z 19008KT 12/M08 A3012 RMK A01 T01201079  RH  024%=      5-min Rain = 0
KTA1 122042Z 18008G13KT 12/M08 A3012 RMK A01 T01231079  RH  024%=      5-min Rain = 0
KTA1 122043Z 16011KT 12/M08 A3012 RMK A01 T01241081  RH  023%=      5-min Rain = 0
KTA1 122044Z 16008KT 12/M08 A3012 RMK A01 T01231082  RH  023%=      5-min Rain = 0
KTA1 122045Z 16007KT 12/M08 A3012 RMK A01 T01231081  RH  023%=      5-min Rain = 0
KTA1 122046Z 16009KT 13/M08 A3012 RMK A01 T01261079  RH  023%=      5-min Rain = 0
KTA1 122047Z 16010KT 13/M08 A3012 RMK A01 T01271079  RH  023%=      5-min Rain = 0
KTA1 122048Z 15008KT 13/M08 A3012 RMK A01 T01271080  RH  023%=      5-min Rain = 0
KTA1 122049Z 16006KT 13/M08 A3012 RMK A01 T01271081  RH  023%=      5-min Rain = 0
KTA1 122050Z 19007KT 13/M08 A3012 RMK A01 T01251080  RH  023%=      5-min Rain = 0
KTA1 122051Z 17011KT 13/M08 A3012 RMK A01 T01261079  RH  023%=      5-min Rain = 0
KTA1 122052Z 16008KT 13/M08 A3012 RMK A01 T01261080  RH  023%=      5-min Rain = 0
KTA1 122053Z 16007KT 13/M08 A3012 RMK A01 T01251081  RH  023%=      5-min Rain = 0
KTA1 122054Z 14007KT 12/M08 A3012 RMK A01 T01241081  RH  023%=      5-min Rain = 0
KTA1 122055Z 16010KT 13/M08 A3012 RMK A01 T01251079  RH  023%=      5-min Rain = 0
KTA1 122056Z 18009KT 13/M08 A3012 RMK A01 T01271078  RH  023%=      5-min Rain = 0
KTA1 122057Z 18008KT 13/M08 A3012 RMK A01 T01261079  RH  023%=      5-min Rain = 0
KTA1 122058Z 17006KT 13/M08 A3012 RMK A01 T01251078  RH  024%=      5-min Rain = 0
KTA1 122059Z 16007KT 13/M08 A3012 RMK A01 T01281075  RH  024%=      5-min Rain = 0
KTA1 122100Z 16009KT 13/M07 A3012 RMK A01 T01301074  RH  023%=      5-min Rain = 0
KTA1 122101Z 16010KT 13/M08 A3012 RMK A01 T01321075  RH  023%=      5-min Rain = 0
KTA1 122102Z 15006KT 13/M08 A3012 RMK A01 T01311076  RH  023%=      5-min Rain = 0
KTA1 122103Z 13006KT 13/M08 A3013 RMK A01 T01301075  RH  023%=      5-min Rain = 0
KTA1 122104Z 14005KT 13/M07 A3013 RMK A01 T01311074  RH  023%=      5-min Rain = 0
KTA1 122105Z 19005KT 13/M08 A3013 RMK A01 T01291075  RH  023%=      5-min Rain = 0
KTA1 122106Z 21006KT 13/M07 A3013 RMK A01 T01291074  RH  024%=      5-min Rain = 0
KTA1 122107Z 18006KT 13/M07 A3013 RMK A01 T01301073  RH  024%=      5-min Rain = 0
KTA1 122108Z 18007KT 13/M07 A3013 RMK A01 T01301074  RH  023%=      5-min Rain = 0
KTA1 122109Z 18007KT 13/M07 A3013 RMK A01 T01301074  RH  023%=      5-min Rain = 0
KTA1 122110Z 18005KT 13/M08 A3013 RMK A01 T01291075  RH  023%=      5-min Rain = 0
KTA1 122111Z 18005KT 13/M07 A3013 RMK A01 T01291074  RH  024%=      5-min Rain = 0
KTA1 122112Z 15007KT 13/M07 A3012 RMK A01 T01291074  RH  024%=      5-min Rain = 0
KTA1 122113Z 14007KT 13/M07 A3012 RMK A01 T01301074  RH  023%=      5-min Rain = 0
KTA1 122114Z 14008KT 13/M07 A3012 RMK A01 T01301074  RH  023%=      5-min Rain = 0
KTA1 122115Z 15009KT 13/M07 A3012 RMK A01 T01301074  RH  024%=      5-min Rain = 0
KTA1 122116Z 15007KT 13/M07 A3012 RMK A01 T01311074  RH  023%=      5-min Rain = 0
KTA1 122117Z 13008KT 13/M08 A3012 RMK A01 T01301075  RH  023%=      5-min Rain = 0
KTA1 122118Z 12005KT 13/M08 A3012 RMK A01 T01281076  RH  023%=      5-min Rain = 0
KTA1 122119Z 11006KT 13/M07 A3012 RMK A01 T01271074  RH  024%=      5-min Rain = 0
KTA1 122120Z 11003KT 13/M07 A3012 RMK A01 T01271074  RH  024%=      5-min Rain = 0
KTA1 122121Z 12003KT 13/M08 A3012 RMK A01 T01281075  RH  024%=      5-min Rain = 0
KTA1 122122Z 19007KT 13/M07 A3012 RMK A01 T01281073  RH  024%=      5-min Rain = 0
KTA1 122123Z 19003KT 13/M07 A3012 RMK A01 T01281073  RH  024%=      5-min Rain = 0
KTA1 122124Z 16006KT 13/M07 A3012 RMK A01 T01281072  RH  024%=      5-min Rain = 0
KTA1 122125Z 17007KT 13/M07 A3012 RMK A01 T01301071  RH  024%=      5-min Rain = 0
KTA1 122126Z 17006KT 13/M07 A3012 RMK A01 T01301072  RH  024%=      5-min Rain = 0
KTA1 122127Z 18005KT 13/M07 A3012 RMK A01 T01301072  RH  024%=      5-min Rain = 0
KTA1 122128Z 18002KT 13/M07 A3012 RMK A01 T01281074  RH  024%=      5-min Rain = 0
KTA1 122129Z 18002KT 13/M07 A3012 RMK A01 T01281073  RH  024%=      5-min Rain = 0
KTA1 122130Z 17002KT 13/M07 A3012 RMK A01 T01281073  RH  024%=      5-min Rain = 0
KTA1 122131Z 12004KT 13/M07 A3012 RMK A01 T01291072  RH  024%=      5-min Rain = 0
KTA1 122132Z 14009KT 13/M07 A3012 RMK A01 T01311071  RH  024%=      5-min Rain = 0
KTA1 122133Z 14007KT 13/M07 A3012 RMK A01 T01321070  RH  024%=      5-min Rain = 0
KTA1 122134Z 14006KT 13/M07 A3012 RMK A01 T01321070  RH  024%=      5-min Rain = 0
KTA1 122135Z 15008KT 13/M07 A3012 RMK A01 T01331069  RH  024%=      5-min Rain = 0
KTA1 122136Z 15006KT 13/M07 A3012 RMK A01 T01331070  RH  024%=      5-min Rain = 0
KTA1 122137Z 16005KT 13/M07 A3012 RMK A01 T01331069  RH  024%=      5-min Rain = 0
KTA1 122138Z 16004KT 14/M07 A3012 RMK A01 T01351069  RH  024%=      5-min Rain = 0
KTA1 122139Z 16005KT 14/M07 A3012 RMK A01 T01361069  RH  024%=      5-min Rain = 0
KTA1 122140Z 16006KT 14/M07 A3012 RMK A01 T01371068  RH  024%=      5-min Rain = 0
KTA1 122141Z 18006KT 14/M07 A3012 RMK A01 T01371067  RH  024%=      5-min Rain = 0
KTA1 122142Z 17005KT 14/M07 A3012 RMK A01 T01371068  RH  024%=      5-min Rain = 0
KTA1 122143Z 19007KT 14/M07 A3012 RMK A01 T01371067  RH  024%=      5-min Rain = 0
KTA1 122144Z 17006KT 14/M07 A3012 RMK A01 T01351068  RH  024%=      5-min Rain = 0
KTA1 122145Z 15006KT 14/M07 A3012 RMK A01 T01351067  RH  024%=      5-min Rain = 0
KTA1 122146Z 18004KT 14/M07 A3012 RMK A01 T01371067  RH  024%=      5-min Rain = 0
KTA1 122147Z 15007KT 14/M07 A3012 RMK A01 T01371067  RH  024%=      5-min Rain = 0
KTA1 122148Z 12007KT 14/M07 A3012 RMK A01 T01381067  RH  024%=      5-min Rain = 0
KTA1 122149Z 13003KT 14/M07 A3012 RMK A01 T01361069  RH  023%=      5-min Rain = 0
KTA1 122150Z 12003KT 13/M07 A3012 RMK A01 T01341069  RH  024%=      5-min Rain = 0
KTA1 122151Z 12005KT 13/M07 A3012 RMK A01 T01331068  RH  024%=      5-min Rain = 0
KTA1 122152Z 13005KT 13/M07 A3012 RMK A01 T01331068  RH  024%=      5-min Rain = 0
KTA1 122153Z 11005KT 13/M07 A3012 RMK A01 T01341067  RH  024%=      5-min Rain = 0
KTA1 122154Z 13006KT 13/M07 A3012 RMK A01 T01341067  RH  024%=      5-min Rain = 0
KTA1 122155Z 13006KT 13/M07 A3012 RMK A01 T01341067  RH  024%=      5-min Rain = 0
KTA1 122156Z 13005KT 13/M07 A3012 RMK A01 T01331068  RH  024%=      5-min Rain = 0
KTA1 122157Z 13003KT 13/M07 A3012 RMK A01 T01331067  RH  024%=      5-min Rain = 0
KTA1 122158Z 14004KT 13/M07 A3012 RMK A01 T01341066  RH  024%=      5-min Rain = 0
KTA1 122159Z 16005KT 14/M07 A3012 RMK A01 T01361066  RH  024%=      5-min Rain = 0
KTA1 122200Z 17004KT 14/M07 A3012 RMK A01 T01371066  RH  024%=      5-min Rain = 0
KTA1 122201Z 16004KT 14/M07 A3012 RMK A01 T01371067  RH  024%=      5-min Rain = 0
KTA1 122202Z 14005KT 14/M07 A3012 RMK A01 T01371066  RH  024%=      5-min Rain = 0
KTA1 122203Z 12007KT 14/M07 A3012 RMK A01 T01381066  RH  024%=      5-min Rain = 0
KTA1 122204Z 11007KT 14/M07 A3012 RMK A01 T01371067  RH  024%=      5-min Rain = 0
KTA1 122205Z 10006KT 14/M07 A3012 RMK A01 T01361067  RH  024%=      5-min Rain = 0
KTA1 122206Z 11006KT 14/M07 A3012 RMK A01 T01351067  RH  024%=      5-min Rain = 0
KTA1 122207Z 13005KT 13/M07 A3012 RMK A01 T01341067  RH  024%=      5-min Rain = 0
KTA1 122208Z 14004KT 13/M07 A3012 RMK A01 T01341067  RH  024%=      5-min Rain = 0
KTA1 122209Z 13006KT 14/M07 A3012 RMK A01 T01351066  RH  024%=      5-min Rain = 0
KTA1 122210Z 13006KT 14/M07 A3012 RMK A01 T01361066  RH  024%=      5-min Rain = 0
KTA1 122211Z 14005KT 14/M07 A3012 RMK A01 T01361066  RH  024%=      5-min Rain = 0
KTA1 122212Z 16005KT 14/M07 A3012 RMK A01 T01381065  RH  024%=      5-min Rain = 0
KTA1 122213Z 14005KT 14/M07 A3012 RMK A01 T01381066  RH  024%=      5-min Rain = 0
KTA1 122214Z 11005KT 14/M07 A3012 RMK A01 T01381066  RH  024%=      5-min Rain = 0
KTA1 122215Z 11005KT 14/M07 A3012 RMK A01 T01381066  RH  024%=      5-min Rain = 0
KTA1 122216Z 11006KT 14/M07 A3012 RMK A01 T01361067  RH  024%=      5-min Rain = 0
KTA1 122217Z 11007KT 14/M07 A3012 RMK A01 T01351067  RH  024%=      5-min Rain = 0
KTA1 122218Z 11008KT 14/M07 A3012 RMK A01 T01351068  RH  024%=      5-min Rain = 0
KTA1 122219Z 11007KT 14/M07 A3012 RMK A01 T01351069  RH  024%=      5-min Rain = 0
KTA1 122220Z 12006KT 14/M07 A3012 RMK A01 T01351069  RH  024%=      5-min Rain = 0
KTA1 122221Z 11007KT 14/M07 A3012 RMK A01 T01351069  RH  024%=      5-min Rain = 0
KTA1 122222Z 10006KT 13/M07 A3012 RMK A01 T01341070  RH  024%=      5-min Rain = 0
KTA1 122223Z 09005KT 13/M07 A3012 RMK A01 T01341069  RH  024%=      5-min Rain = 0
KTA1 122224Z 10007KT 13/M07 A3012 RMK A01 T01341069  RH  024%=      5-min Rain = 0
KTA1 122225Z 11007KT 13/M07 A3012 RMK A01 T01341070  RH  024%=      5-min Rain = 0
KTA1 122226Z 13009KT 13/M07 A3012 RMK A01 T01331069  RH  024%=      5-min Rain = 0
KTA1 122227Z 12008KT 13/M07 A3012 RMK A01 T01341069  RH  024%=      5-min Rain = 0
KTA1 122228Z 12006KT 13/M07 A3012 RMK A01 T01341069  RH  024%=      5-min Rain = 0
KTA1 122229Z 13006KT 13/M07 A3012 RMK A01 T01341069  RH  024%=      5-min Rain = 0
KTA1 122230Z 13007KT 13/M07 A3012 RMK A01 T01341069  RH  024%=      5-min Rain = 0
KTA1 122231Z 12007KT 14/M07 A3012 RMK A01 T01351069  RH  024%=      5-min Rain = 0
KTA1 122232Z 11008KT 14/M07 A3012 RMK A01 T01351070  RH  023%=      5-min Rain = 0
KTA1 122233Z 11008KT 14/M07 A3012 RMK A01 T01351070  RH  023%=      5-min Rain = 0
KTA1 122234Z 10007KT 13/M07 A3012 RMK A01 T01341071  RH  023%=      5-min Rain = 0
KTA1 122235Z 10007KT 13/M07 A3012 RMK A01 T01331071  RH  024%=      5-min Rain = 0
KTA1 122236Z 11008KT 13/M07 A3012 RMK A01 T01331070  RH  024%=      5-min Rain = 0
KTA1 122237Z 12008KT 13/M07 A3012 RMK A01 T01331070  RH  024%=      5-min Rain = 0
KTA1 122238Z 12008KT 13/M07 A3012 RMK A01 T01331070  RH  024%=      5-min Rain = 0
KTA1 122239Z 10006KT 13/M07 A3012 RMK A01 T01331071  RH  024%=      5-min Rain = 0
KTA1 122240Z 10006KT 13/M07 A3012 RMK A01 T01331070  RH  024%=      5-min Rain = 0
KTA1 122241Z 11006KT 13/M07 A3012 RMK A01 T01321070  RH  024%=      5-min Rain = 0
KTA1 122242Z 11009KT 13/M07 A3012 RMK A01 T01331070  RH  024%=      5-min Rain = 0
KTA1 122243Z 10007KT 13/M07 A3012 RMK A01 T01331070  RH  024%=      5-min Rain = 0
KTA1 122244Z 11007KT 13/M07 A3012 RMK A01 T01321069  RH  024%=      5-min Rain = 0
KTA1 122245Z 11008KT 13/M07 A3012 RMK A01 T01321069  RH  024%=      5-min Rain = 0
KTA1 122246Z 11009KT 13/M07 A3012 RMK A01 T01321069  RH  024%=      5-min Rain = 0
KTA1 122247Z 11008KT 13/M07 A3012 RMK A01 T01321069  RH  024%=      5-min Rain = 0
KTA1 122248Z 12007KT 13/M07 A3012 RMK A01 T01321068  RH  024%=      5-min Rain = 0
KTA1 122249Z 12007KT 13/M07 A3012 RMK A01 T01321068  RH  024%=      5-min Rain = 0
KTA1 122250Z 11007KT 13/M07 A3012 RMK A01 T01321069  RH  024%=      5-min Rain = 0
KTA1 122251Z 10008KT 13/M07 A3012 RMK A01 T01321069  RH  024%=      5-min Rain = 0
KTA1 122252Z 10007KT 13/M07 A3012 RMK A01 T01321069  RH  024%=      5-min Rain = 0
KTA1 122253Z 10008KT 13/M07 A3012 RMK A01 T01321069  RH  024%=      5-min Rain = 0
KTA1 122254Z 10007KT 13/M07 A3012 RMK A01 T01311069  RH  024%=      5-min Rain = 0
KTA1 122255Z 11006KT 13/M07 A3012 RMK A01 T01311069  RH  024%=      5-min Rain = 0
KTA1 122256Z 11005KT 13/M07 A3012 RMK A01 T01311069  RH  024%=      5-min Rain = 0
KTA1 122257Z 12006KT 13/M07 A3012 RMK A01 T01311070  RH  024%=      5-min Rain = 0
KTA1 122258Z 12007KT 13/M07 A3012 RMK A01 T01321069  RH  024%=      5-min Rain = 0
KTA1 122259Z 12006KT 13/M07 A3012 RMK A01 T01331067  RH  024%=      5-min Rain = 0
KTA1 122300Z 13006KT 13/M07 A3012 RMK A01 T01321067  RH  024%=      5-min Rain = 0
KTA1 122301Z 12006KT 13/M07 A3012 RMK A01 T01321067  RH  024%=      5-min Rain = 0
KTA1 122302Z 11007KT 13/M07 A3012 RMK A01 T01321067  RH  025%=      5-min Rain = 0
KTA1 122303Z 12007KT 13/M07 A3012 RMK A01 T01321066  RH  025%=      5-min Rain = 0
KTA1 122304Z 12005KT 13/M07 A3012 RMK A01 T01321065  RH  025%=      5-min Rain = 0
KTA1 122305Z 12006KT 13/M07 A3012 RMK A01 T01321065  RH  025%=      5-min Rain = 0
KTA1 122306Z 12007KT 13/M06 A3012 RMK A01 T01321064  RH  025%=      5-min Rain = 0
KTA1 122307Z 12009KT 13/M06 A3012 RMK A01 T01321064  RH  025%=      5-min Rain = 0
KTA1 122308Z 12007KT 13/M06 A3012 RMK A01 T01311064  RH  025%=      5-min Rain = 0
KTA1 122309Z 12007KT 13/M06 A3012 RMK A01 T01311064  RH  025%=      5-min Rain = 0
KTA1 122310Z 11008KT 13/M06 A3012 RMK A01 T01311064  RH  025%=      5-min Rain = 0
KTA1 122311Z 12007KT 13/M07 A3012 RMK A01 T01301065  RH  025%=      5-min Rain = 0
KTA1 122312Z 12006KT 13/M07 A3012 RMK A01 T01301065  RH  025%=      5-min Rain = 0
KTA1 122313Z 12007KT 13/M06 A3012 RMK A01 T01301064  RH  025%=      5-min Rain = 0
KTA1 122314Z 13009KT 13/M06 A3012 RMK A01 T01301064  RH  025%=      5-min Rain = 0
KTA1 122315Z 12008KT 13/M06 A3012 RMK A01 T01301064  RH  025%=      5-min Rain = 0
KTA1 122316Z 12008KT 13/M06 A3012 RMK A01 T01291064  RH  025%=      5-min Rain = 0
KTA1 122317Z 11008KT 13/M06 A3012 RMK A01 T01291064  RH  026%=      5-min Rain = 0
KTA1 122318Z 11008KT 13/M06 A3012 RMK A01 T01291064  RH  026%=      5-min Rain = 0
KTA1 122319Z 11008KT 13/M06 A3012 RMK A01 T01281064  RH  026%=      5-min Rain = 0
KTA1 122320Z 11008KT 13/M06 A3012 RMK A01 T01281064  RH  026%=      5-min Rain = 0
KTA1 122321Z 11008KT 13/M06 A3012 RMK A01 T01281064  RH  026%=      5-min Rain = 0
KTA1 122322Z 11007KT 13/M06 A3012 RMK A01 T01271064  RH  026%=      5-min Rain = 0
KTA1 122323Z 11006KT 13/M06 A3012 RMK A01 T01271064  RH  026%=      5-min Rain = 0
KTA1 122324Z 11007KT 13/M06 A3012 RMK A01 T01271064  RH  026%=      5-min Rain = 0
KTA1 122325Z 11007KT 13/M06 A3012 RMK A01 T01271063  RH  026%=      5-min Rain = 0
KTA1 122326Z 11006KT 13/M06 A3012 RMK A01 T01271064  RH  026%=      5-min Rain = 0
KTA1 122327Z 11007KT 13/M06 A3012 RMK A01 T01271064  RH  026%=      5-min Rain = 0
KTA1 122328Z 12008KT 13/M06 A3012 RMK A01 T01271064  RH  026%=      5-min Rain = 0
KTA1 122329Z 12007KT 13/M06 A3012 RMK A01 T01261064  RH  026%=      5-min Rain = 0
KTA1 122330Z 11006KT 13/M06 A3012 RMK A01 T01261064  RH  026%=      5-min Rain = 0
KTA1 122331Z 12007KT 13/M06 A3012 RMK A01 T01251064  RH  026%=      5-min Rain = 0
KTA1 122332Z 12008KT 13/M06 A3012 RMK A01 T01251064  RH  026%=      5-min Rain = 0
KTA1 122333Z 12008KT 13/M06 A3013 RMK A01 T01251064  RH  026%=      5-min Rain = 0
KTA1 122334Z 12007KT 12/M06 A3013 RMK A01 T01241064  RH  026%=      5-min Rain = 0
KTA1 122335Z 12007KT 12/M06 A3013 RMK A01 T01241064  RH  026%=      5-min Rain = 0
KTA1 122336Z 11007KT 12/M06 A3013 RMK A01 T01231064  RH  026%=      5-min Rain = 0
KTA1 122337Z 11007KT 12/M06 A3013 RMK A01 T01231064  RH  026%=      5-min Rain = 0
KTA1 122338Z 11007KT 12/M06 A3013 RMK A01 T01221064  RH  027%=      5-min Rain = 0
KTA1 122339Z 11007KT 12/M07 A3013 RMK A01 T01211065  RH  027%=      5-min Rain = 0
KTA1 122340Z 11006KT 12/M07 A3013 RMK A01 T01211065  RH  027%=      5-min Rain = 0
KTA1 122341Z 11007KT 12/M07 A3013 RMK A01 T01201065  RH  027%=      5-min Rain = 0
KTA1 122342Z 11007KT 12/M07 A3013 RMK A01 T01191065  RH  027%=      5-min Rain = 0
KTA1 122343Z 11007KT 12/M07 A3013 RMK A01 T01191065  RH  027%=      5-min Rain = 0
KTA1 122344Z 11007KT 12/M07 A3013 RMK A01 T01181065  RH  027%=      5-min Rain = 0
KTA1 122345Z 11006KT 12/M07 A3013 RMK A01 T01171066  RH  027%=      5-min Rain = 0
KTA1 122346Z 11006KT 12/M07 A3013 RMK A01 T01171066  RH  027%=      5-min Rain = 0
KTA1 122347Z 11007KT 12/M07 A3013 RMK A01 T01161066  RH  027%=      5-min Rain = 0
KTA1 122348Z 11007KT 12/M07 A3013 RMK A01 T01151066  RH  028%=      5-min Rain = 0
KTA1 122349Z 11007KT 12/M07 A3013 RMK A01 T01151065  RH  028%=      5-min Rain = 0
KTA1 122350Z 11007KT 11/M07 A3013 RMK A01 T01131066  RH  028%=      5-min Rain = 0
KTA1 122351Z 12007KT 11/M07 A3013 RMK A01 T01131066  RH  028%=      5-min Rain = 0
KTA1 122352Z 12007KT 11/M07 A3013 RMK A01 T01121066  RH  028%=      5-min Rain = 0
KTA1 122353Z 12007KT 11/M07 A3013 RMK A01 T01111066  RH  028%=      5-min Rain = 0
KTA1 122354Z 11006KT 11/M07 A3013 RMK A01 T01111066  RH  028%=      5-min Rain = 0
KTA1 122355Z 11007KT 11/M07 A3013 RMK A01 T01111066  RH  028%=      5-min Rain = 0
KTA1 122356Z 11006KT 11/M07 A3013 RMK A01 T01101066  RH  028%=      5-min Rain = 0
KTA1 122357Z 11007KT 11/M07 A3013 RMK A01 T01091067  RH  028%=      5-min Rain = 0
KTA1 122358Z 11006KT 11/M07 A3013 RMK A01 T01081067  RH  029%=      5-min Rain = 0
KTA1 122359Z 11007KT 11/M07 A3013 RMK A01 T01071067  RH  029%=      5-min Rain = 0
KTA1 130000Z 11007KT 11/M07 A3013 RMK A01 T01061068  RH  029%=      5-min Rain = 0
KTA1 130001Z 11007KT 11/M07 A3013 RMK A01 T01051068  RH  029%=      5-min Rain = 0
KTA1 130002Z 11007KT 10/M07 A3013 RMK A01 T01041068  RH  029%=      5-min Rain = 0
KTA1 130003Z 11006KT 10/M07 A3013 RMK A01 T01031068  RH  029%=      5-min Rain = 0
KTA1 130004Z 11006KT 10/M07 A3013 RMK A01 T01021068  RH  030%=      5-min Rain = 0
KTA1 130005Z 11006KT 10/M07 A3013 RMK A01 T01011068  RH  030%=      5-min Rain = 0
KTA1 130006Z 11006KT 10/M07 A3013 RMK A01 T01001068  RH  030%=      5-min Rain = 0
KTA1 130007Z 11007KT 10/M07 A3013 RMK A01 T00981069  RH  030%=      5-min Rain = 0
KTA1 130008Z 11007KT 10/M07 A3013 RMK A01 T00971069  RH  030%=      5-min Rain = 0
KTA1 130009Z 11007KT 10/M07 A3013 RMK A01 T00951070  RH  031%=      5-min Rain = 0
KTA1 130010Z 12007KT 09/M07 A3013 RMK A01 T00941070  RH  031%=      5-min Rain = 0
KTA1 130011Z 12007KT 09/M07 A3013 RMK A01 T00931070  RH  031%=      5-min Rain = 0
KTA1 130012Z 12007KT 09/M07 A3013 RMK A01 T00921070  RH  031%=      5-min Rain = 0
KTA1 130013Z 12007KT 09/M07 A3014 RMK A01 T00911070  RH  031%=      5-min Rain = 0
KTA1 130014Z 12007KT 09/M07 A3014 RMK A01 T00911070  RH  031%=      5-min Rain = 0
KTA1 130015Z 11007KT 09/M07 A3014 RMK A01 T00901071  RH  031%=      5-min Rain = 0
KTA1 130016Z 11007KT 09/M07 A3014 RMK A01 T00891071  RH  032%=      5-min Rain = 0
KTA1 130017Z 11007KT 09/M07 A3014 RMK A01 T00881071  RH  032%=      5-min Rain = 0
KTA1 130018Z 11007KT 09/M07 A3014 RMK A01 T00871071  RH  032%=      5-min Rain = 0
KTA1 130019Z 11007KT 09/M07 A3014 RMK A01 T00871071  RH  032%=      5-min Rain = 0
KTA1 130020Z 11007KT 09/M07 A3014 RMK A01 T00861071  RH  032%=      5-min Rain = 0
KTA1 130021Z 12007KT 09/M07 A3014 RMK A01 T00861071  RH  032%=      5-min Rain = 0
KTA1 130022Z 12008KT 09/M07 A3013 RMK A01 T00861072  RH  032%=      5-min Rain = 0
KTA1 130023Z 12008KT 09/M07 A3013 RMK A01 T00861071  RH  032%=      5-min Rain = 0
KTA1 130024Z 12007KT 09/M07 A3014 RMK A01 T00861072  RH  032%=      5-min Rain = 0
KTA1 130025Z 11007KT 09/M07 A3014 RMK A01 T00851072  RH  032%=      5-min Rain = 0
KTA1 130026Z 11007KT 09/M07 A3014 RMK A01 T00851071  RH  032%=      5-min Rain = 0
KTA1 130027Z 11008KT 09/M07 A3014 RMK A01 T00851072  RH  032%=      5-min Rain = 0
KTA1 130028Z 11008KT 09/M07 A3014 RMK A01 T00851072  RH  032%=      5-min Rain = 0
KTA1 130029Z 11008KT 09/M07 A3014 RMK A01 T00851072  RH  032%=      5-min Rain = 0
KTA1 130030Z 11008KT 08/M07 A3014 RMK A01 T00841072  RH  032%=      5-min Rain = 0
KTA1 130031Z 11007KT 08/M07 A3014 RMK A01 T00841072  RH  032%=      5-min Rain = 0
KTA1 130032Z 11007KT 09/M07 A3014 RMK A01 T00851071  RH  032%=      5-min Rain = 0
KTA1 130033Z 11008KT 09/M07 A3014 RMK A01 T00851071  RH  032%=      5-min Rain = 0
KTA1 130034Z 11007KT 08/M07 A3014 RMK A01 T00841072  RH  032%=      5-min Rain = 0
KTA1 130035Z 11007KT 08/M07 A3014 RMK A01 T00841072  RH  032%=      5-min Rain = 0
KTA1 130036Z 11007KT 08/M07 A3014 RMK A01 T00841071  RH  033%=      5-min Rain = 0
KTA1 130037Z 11007KT 08/M07 A3014 RMK A01 T00841072  RH  033%=      5-min Rain = 0
KTA1 130038Z 12007KT 08/M07 A3014 RMK A01 T00841071  RH  033%=      5-min Rain = 0
KTA1 130039Z 12007KT 08/M07 A3014 RMK A01 T00841071  RH  033%=      5-min Rain = 0
KTA1 130040Z 12007KT 08/M07 A3014 RMK A01 T00841072  RH  033%=      5-min Rain = 0
KTA1 130041Z 12008KT 08/M07 A3014 RMK A01 T00831072  RH  033%=      5-min Rain = 0
KTA1 130042Z 12008KT 08/M07 A3014 RMK A01 T00831072  RH  033%=      5-min Rain = 0
KTA1 130043Z 12008KT 08/M07 A3014 RMK A01 T00831072  RH  033%=      5-min Rain = 0
KTA1 130044Z 12008KT 08/M07 A3014 RMK A01 T00841072  RH  033%=      5-min Rain = 0
KTA1 130045Z 11008KT 08/M07 A3015 RMK A01 T00841072  RH  033%=      5-min Rain = 0
KTA1 130046Z 11008KT 08/M07 A3015 RMK A01 T00831072  RH  033%=      5-min Rain = 0
KTA1 130047Z 11008KT 08/M07 A3015 RMK A01 T00821072  RH  033%=      5-min Rain = 0
KTA1 130048Z 11007KT 08/M07 A3015 RMK A01 T00821073  RH  033%=      5-min Rain = 0
KTA1 130049Z 11007KT 08/M07 A3015 RMK A01 T00811073  RH  033%=      5-min Rain = 0
KTA1 130050Z 11007KT 08/M07 A3015 RMK A01 T00801073  RH  033%=      5-min Rain = 0
KTA1 130051Z 11008KT 08/M07 A3015 RMK A01 T00781074  RH  033%=      5-min Rain = 0
KTA1 130052Z 11008KT 08/M07 A3015 RMK A01 T00771073  RH  034%=      5-min Rain = 0
KTA1 130053Z 11007KT 08/M07 A3015 RMK A01 T00761073  RH  034%=      5-min Rain = 0
KTA1 130054Z 10007KT 08/M07 A3015 RMK A01 T00761073  RH  034%=      5-min Rain = 0
KTA1 130055Z 10007KT 08/M07 A3015 RMK A01 T00751073  RH  034%=      5-min Rain = 0
KTA1 130056Z 10007KT 08/M07 A3015 RMK A01 T00751072  RH  034%=      5-min Rain = 0
KTA1 130057Z 10007KT 08/M07 A3015 RMK A01 T00751072  RH  034%=      5-min Rain = 0
KTA1 130058Z 11007KT 07/M07 A3015 RMK A01 T00741072  RH  035%=      5-min Rain = 0
KTA1 130059Z 11007KT 07/M07 A3015 RMK A01 T00731072  RH  035%=      5-min Rain = 0
KTA1 130100Z 11007KT 07/M07 A3015 RMK A01 T00731072  RH  035%=      5-min Rain = 0
KTA1 130101Z 11007KT 07/M07 A3015 RMK A01 T00731071  RH  035%=      5-min Rain = 0
KTA1 130102Z 11007KT 07/M07 A3015 RMK A01 T00721071  RH  035%=      5-min Rain = 0
KTA1 130103Z 11007KT 07/M07 A3015 RMK A01 T00731071  RH  035%=      5-min Rain = 0
KTA1 130104Z 11007KT 07/M07 A3015 RMK A01 T00731071  RH  035%=      5-min Rain = 0
KTA1 130105Z 11007KT 07/M07 A3015 RMK A01 T00731071  RH  035%=      5-min Rain = 0
KTA1 130106Z 11007KT 07/M07 A3016 RMK A01 T00731071  RH  035%=      5-min Rain = 0
KTA1 130107Z 11007KT 07/M07 A3016 RMK A01 T00731071  RH  035%=      5-min Rain = 0
KTA1 130108Z 11008KT 07/M07 A3016 RMK A01 T00731071  RH  035%=      5-min Rain = 0
KTA1 130109Z 11007KT 07/M07 A3016 RMK A01 T00741070  RH  035%=      5-min Rain = 0
KTA1 130110Z 11008KT 07/M07 A3016 RMK A01 T00741071  RH  035%=      5-min Rain = 0
KTA1 130111Z 11008KT 08/M07 A3016 RMK A01 T00751071  RH  035%=      5-min Rain = 0
KTA1 130112Z 11008KT 08/M07 A3016 RMK A01 T00751072  RH  035%=      5-min Rain = 0
KTA1 130113Z 11008KT 08/M07 A3016 RMK A01 T00751072  RH  035%=      5-min Rain = 0
KTA1 130114Z 11008KT 08/M07 A3016 RMK A01 T00751072  RH  034%=      5-min Rain = 0
KTA1 130115Z 11008KT 08/M07 A3016 RMK A01 T00751072  RH  034%=      5-min Rain = 0
KTA1 130116Z 11008KT 07/M07 A3016 RMK A01 T00741073  RH  034%=      5-min Rain = 0
KTA1 130117Z 11008KT 07/M07 A3016 RMK A01 T00741073  RH  034%=      5-min Rain = 0
KTA1 130118Z 11007KT 07/M07 A3016 RMK A01 T00731073  RH  034%=      5-min Rain = 0
KTA1 130119Z 11007KT 07/M07 A3016 RMK A01 T00731074  RH  034%=      5-min Rain = 0
KTA1 130120Z 11007KT 07/M07 A3016 RMK A01 T00721074  RH  034%=      5-min Rain = 0
KTA1 130121Z 11008KT 07/M07 A3017 RMK A01 T00711074  RH  035%=      5-min Rain = 0
KTA1 130122Z 11007KT 07/M07 A3017 RMK A01 T00711074  RH  035%=      5-min Rain = 0
KTA1 130123Z 11007KT 07/M08 A3017 RMK A01 T00711075  RH  035%=      5-min Rain = 0
KTA1 130124Z 11007KT 07/M08 A3017 RMK A01 T00701075  RH  035%=      5-min Rain = 0
KTA1 130125Z 11007KT 07/M08 A3017 RMK A01 T00701075  RH  035%=      5-min Rain = 0
KTA1 130126Z 11007KT 07/M08 A3017 RMK A01 T00691075  RH  035%=      5-min Rain = 0
KTA1 130127Z 11007KT 07/M08 A3017 RMK A01 T00681076  RH  035%=      5-min Rain = 0
KTA1 130128Z 11007KT 07/M08 A3017 RMK A01 T00681075  RH  035%=      5-min Rain = 0
KTA1 130129Z 11007KT 07/M08 A3017 RMK A01 T00691075  RH  035%=      5-min Rain = 0
KTA1 130130Z 11007KT 07/M08 A3017 RMK A01 T00681076  RH  035%=      5-min Rain = 0
KTA1 130131Z 11007KT 07/M08 A3017 RMK A01 T00671076  RH  035%=      5-min Rain = 0
KTA1 130132Z 11007KT 07/M08 A3017 RMK A01 T00671076  RH  035%=      5-min Rain = 0
KTA1 130133Z 11007KT 07/M08 A3017 RMK A01 T00671076  RH  035%=      5-min Rain = 0
KTA1 130134Z 11007KT 07/M08 A3017 RMK A01 T00661076  RH  035%=      5-min Rain = 0
KTA1 130135Z 11007KT 07/M08 A3017 RMK A01 T00661076  RH  036%=      5-min Rain = 0
KTA1 130136Z 11007KT 07/M08 A3017 RMK A01 T00651076  RH  036%=      5-min Rain = 0
KTA1 130137Z 11007KT 07/M08 A3017 RMK A01 T00651076  RH  036%=      5-min Rain = 0
KTA1 130138Z 11007KT 07/M08 A3017 RMK A01 T00651076  RH  036%=      5-min Rain = 0
KTA1 130139Z 11007KT 06/M08 A3017 RMK A01 T00641076  RH  036%=      5-min Rain = 0
KTA1 130140Z 11007KT 06/M08 A3017 RMK A01 T00641076  RH  036%=      5-min Rain = 0
KTA1 130141Z 11007KT 06/M08 A3017 RMK A01 T00631076  RH  036%=      5-min Rain = 0
KTA1 130142Z 11007KT 06/M08 A3017 RMK A01 T00631076  RH  036%=      5-min Rain = 0
KTA1 130143Z 11007KT 06/M08 A3017 RMK A01 T00621077  RH  036%=      5-min Rain = 0
KTA1 130144Z 11006KT 06/M08 A3017 RMK A01 T00611077  RH  036%=      5-min Rain = 0
KTA1 130145Z 12006KT 06/M08 A3017 RMK A01 T00611077  RH  037%=      5-min Rain = 0
KTA1 130146Z 12006KT 06/M08 A3017 RMK A01 T00611077  RH  037%=      5-min Rain = 0
KTA1 130147Z 12007KT 06/M08 A3017 RMK A01 T00601077  RH  037%=      5-min Rain = 0
KTA1 130148Z 12007KT 06/M08 A3017 RMK A01 T00601077  RH  037%=      5-min Rain = 0
KTA1 130149Z 12007KT 06/M08 A3017 RMK A01 T00601077  RH  037%=      5-min Rain = 0
KTA1 130150Z 13007KT 06/M08 A3017 RMK A01 T00601077  RH  037%=      5-min Rain = 0
KTA1 130151Z 12007KT 06/M08 A3017 RMK A01 T00591077  RH  037%=      5-min Rain = 0
KTA1 130152Z 13007KT 06/M08 A3017 RMK A01 T00591077  RH  037%=      5-min Rain = 0
KTA1 130153Z 12007KT 06/M08 A3017 RMK A01 T00591077  RH  037%=      5-min Rain = 0
KTA1 130154Z 12007KT 06/M08 A3017 RMK A01 T00591077  RH  037%=      5-min Rain = 0
KTA1 130155Z 12007KT 06/M08 A3018 RMK A01 T00591078  RH  037%=      5-min Rain = 0
KTA1 130156Z 12007KT 06/M08 A3018 RMK A01 T00591078  RH  037%=      5-min Rain = 0
KTA1 130157Z 12007KT 06/M08 A3018 RMK A01 T00591078  RH  037%=      5-min Rain = 0
KTA1 130158Z 12007KT 06/M08 A3018 RMK A01 T00591078  RH  037%=      5-min Rain = 0
KTA1 130159Z 12006KT 06/M08 A3018 RMK A01 T00591078  RH  036%=      5-min Rain = 0
KTA1 130200Z 11006KT 06/M08 A3018 RMK A01 T00591079  RH  037%=      5-min Rain = 0
KTA1 130201Z 11006KT 06/M08 A3018 RMK A01 T00581079  RH  037%=      5-min Rain = 0
KTA1 130202Z 11006KT 06/M08 A3018 RMK A01 T00581079  RH  037%=      5-min Rain = 0
KTA1 130203Z 11006KT 06/M08 A3018 RMK A01 T00571079  RH  037%=      5-min Rain = 0
KTA1 130204Z 11006KT 06/M08 A3018 RMK A01 T00571079  RH  037%=      5-min Rain = 0
KTA1 130205Z 11006KT 06/M08 A3018 RMK A01 T00571079  RH  037%=      5-min Rain = 0
KTA1 130206Z 11006KT 06/M08 A3019 RMK A01 T00571079  RH  037%=      5-min Rain = 0
KTA1 130207Z 10006KT 06/M08 A3019 RMK A01 T00561079  RH  037%=      5-min Rain = 0
KTA1 130208Z 10006KT 06/M08 A3019 RMK A01 T00561079  RH  037%=      5-min Rain = 0
KTA1 130209Z 10006KT 06/M08 A3019 RMK A01 T00551079  RH  037%=      5-min Rain = 0
KTA1 130210Z 10006KT 06/M08 A3019 RMK A01 T00551079  RH  037%=      5-min Rain = 0
KTA1 130211Z 09006KT 06/M08 A3019 RMK A01 T00551079  RH  037%=      5-min Rain = 0
KTA1 130212Z 08006KT 06/M08 A3019 RMK A01 T00551079  RH  037%=      5-min Rain = 0
KTA1 130213Z 09006KT 05/M08 A3019 RMK A01 T00541079  RH  038%=      5-min Rain = 0
KTA1 130214Z 09006KT 05/M08 A3019 RMK A01 T00531079  RH  038%=      5-min Rain = 0
KTA1 130215Z 08007KT 05/M08 A3019 RMK A01 T00531078  RH  038%=      5-min Rain = 0
KTA1 130216Z 08008KT 05/M08 A3019 RMK A01 T00521078  RH  038%=      5-min Rain = 0
KTA1 130217Z 09007KT 05/M08 A3019 RMK A01 T00521078  RH  039%=      5-min Rain = 0
KTA1 130218Z 09007KT 05/M08 A3019 RMK A01 T00521078  RH  039%=      5-min Rain = 0
KTA1 130219Z 08007KT 05/M08 A302 RMK A01 T00511078  RH  039%=      5-min Rain = 0
KTA1 130220Z 09007KT 05/M08 A302 RMK A01 T00511079  RH  039%=      5-min Rain = 0
KTA1 130221Z 09007KT 05/M08 A302 RMK A01 T00501079  RH  039%=      5-min Rain = 0
KTA1 130222Z 09008KT 05/M08 A302 RMK A01 T00501079  RH  039%=      5-min Rain = 0
KTA1 130223Z 09007KT 05/M08 A302 RMK A01 T00511079  RH  039%=      5-min Rain = 0
KTA1 130224Z 09008KT 05/M08 A302 RMK A01 T00531079  RH  038%=      5-min Rain = 0
KTA1 130225Z 09008KT 05/M08 A302 RMK A01 T00541079  RH  038%=      5-min Rain = 0
KTA1 130226Z 09008KT 06/M08 A302 RMK A01 T00561079  RH  037%=      5-min Rain = 0
KTA1 130227Z 09008KT 06/M08 A302 RMK A01 T00561080  RH  037%=      5-min Rain = 0
KTA1 130228Z 09009KT 06/M08 A302 RMK A01 T00561080  RH  037%=      5-min Rain = 0
KTA1 130229Z 09009KT 06/M08 A302 RMK A01 T00571081  RH  037%=      5-min Rain = 0
KTA1 130230Z 09009KT 06/M08 A302 RMK A01 T00571081  RH  036%=      5-min Rain = 0
KTA1 130231Z 09008KT 06/M08 A302 RMK A01 T00581082  RH  036%=      5-min Rain = 0
KTA1 130232Z 09008KT 06/M08 A302 RMK A01 T00571083  RH  036%=      5-min Rain = 0
KTA1 130233Z 09009KT 06/M08 A302 RMK A01 T00581083  RH  036%=      5-min Rain = 0
KTA1 130234Z 09009KT 06/M08 A302 RMK A01 T00581083  RH  036%=      5-min Rain = 0
KTA1 130235Z 09008KT 06/M08 A302 RMK A01 T00591083  RH  035%=      5-min Rain = 0
KTA1 130236Z 09009KT 06/M08 A3021 RMK A01 T00591084  RH  035%=      5-min Rain = 0
KTA1 130237Z 09010KT 06/M08 A3021 RMK A01 T00591084  RH  035%=      5-min Rain = 0
KTA1 130238Z 09008KT 06/M09 A3021 RMK A01 T00591085  RH  035%=      5-min Rain = 0
KTA1 130239Z 10008KT 06/M09 A3021 RMK A01 T00591085  RH  035%=      5-min Rain = 0
KTA1 130240Z 09009KT 06/M09 A3021 RMK A01 T00591085  RH  035%=      5-min Rain = 0
KTA1 130241Z 09009KT 06/M09 A3021 RMK A01 T00581086  RH  035%=      5-min Rain = 0
KTA1 130242Z 09009KT 06/M09 A3021 RMK A01 T00581086  RH  035%=      5-min Rain = 0
KTA1 130243Z 09009KT 06/M09 A3021 RMK A01 T00571087  RH  035%=      5-min Rain = 0
KTA1 130244Z 09008KT 06/M09 A3021 RMK A01 T00571087  RH  035%=      5-min Rain = 0
KTA1 130245Z 10009KT 06/M09 A3021 RMK A01 T00571087  RH  035%=      5-min Rain = 0
KTA1 130246Z 09009KT 06/M09 A3021 RMK A01 T00571087  RH  035%=      5-min Rain = 0
KTA1 130247Z 09009KT 06/M09 A3021 RMK A01 T00571088  RH  034%=      5-min Rain = 0
KTA1 130248Z 09009KT 06/M09 A3022 RMK A01 T00571088  RH  034%=      5-min Rain = 0
KTA1 130249Z 09009KT 06/M09 A3022 RMK A01 T00571088  RH  034%=      5-min Rain = 0
KTA1 130250Z 09009KT 06/M09 A3022 RMK A01 T00561089  RH  034%=      5-min Rain = 0
KTA1 130251Z 09009KT 06/M09 A3022 RMK A01 T00561089  RH  035%=      5-min Rain = 0
KTA1 130252Z 09008KT 06/M09 A3022 RMK A01 T00561089  RH  035%=      5-min Rain = 0
KTA1 130253Z 09008KT 06/M09 A3022 RMK A01 T00551089  RH  035%=      5-min Rain = 0
KTA1 130254Z 09008KT 06/M09 A3022 RMK A01 T00551089  RH  035%=      5-min Rain = 0
KTA1 130255Z 09009KT 05/M09 A3022 RMK A01 T00541089  RH  035%=      5-min Rain = 0
KTA1 130256Z 09009KT 05/M09 A3022 RMK A01 T00541089  RH  035%=      5-min Rain = 0
KTA1 130257Z 09009KT 05/M09 A3022 RMK A01 T00531090  RH  035%=      5-min Rain = 0
KTA1 130258Z 08009KT 05/M09 A3022 RMK A01 T00521090  RH  035%=      5-min Rain = 0
KTA1 130259Z 08008KT 05/M09 A3023 RMK A01 T00511090  RH  035%=      5-min Rain = 0
KTA1 130300Z 08009KT 05/M09 A3023 RMK A01 T00511090  RH  035%=      5-min Rain = 0
KTA1 130301Z 08009KT 05/M09 A3023 RMK A01 T00511089  RH  035%=      5-min Rain = 0
KTA1 130302Z 08009KT 05/M09 A3023 RMK A01 T00501090  RH  036%=      5-min Rain = 0
KTA1 130303Z 08009KT 05/M09 A3023 RMK A01 T00501090  RH  036%=      5-min Rain = 0
KTA1 130304Z 08009KT 05/M09 A3023 RMK A01 T00491090  RH  036%=      5-min Rain = 0
KTA1 130305Z 07009KT 05/M09 A3023 RMK A01 T00491090  RH  036%=      5-min Rain = 0
KTA1 130306Z 07009KT 05/M09 A3023 RMK A01 T00491090  RH  036%=      5-min Rain = 0
KTA1 130307Z 07009KT 05/M09 A3023 RMK A01 T00481091  RH  036%=      5-min Rain = 0
KTA1 130308Z 07009KT 05/M09 A3024 RMK A01 T00471091  RH  036%=      5-min Rain = 0
KTA1 130309Z 07008KT 05/M09 A3024 RMK A01 T00471091  RH  036%=      5-min Rain = 0
KTA1 130310Z 07009KT 05/M09 A3024 RMK A01 T00461091  RH  036%=      5-min Rain = 0
KTA1 130311Z 07009KT 05/M09 A3024 RMK A01 T00461091  RH  036%=      5-min Rain = 0
KTA1 130312Z 07009KT 05/M09 A3024 RMK A01 T00451091  RH  037%=      5-min Rain = 0
KTA1 130313Z 07009KT 05/M09 A3024 RMK A01 T00451091  RH  037%=      5-min Rain = 0
KTA1 130314Z 07009KT 05/M09 A3024 RMK A01 T00451092  RH  036%=      5-min Rain = 0
KTA1 130315Z 07009KT 05/M09 A3024 RMK A01 T00451092  RH  036%=      5-min Rain = 0
KTA1 130316Z 07009KT 05/M09 A3025 RMK A01 T00461091  RH  036%=      5-min Rain = 0
KTA1 130317Z 07009KT 05/M09 A3025 RMK A01 T00461092  RH  036%=      5-min Rain = 0
KTA1 130318Z 07009KT 05/M09 A3025 RMK A01 T00451091  RH  036%=      5-min Rain = 0
KTA1 130319Z 07009KT 05/M09 A3025 RMK A01 T00451091  RH  037%=      5-min Rain = 0
KTA1 130320Z 08008KT 05/M09 A3025 RMK A01 T00451090  RH  037%=      5-min Rain = 0
KTA1 130321Z 08009KT 04/M09 A3025 RMK A01 T00441089  RH  037%=      5-min Rain = 0
KTA1 130322Z 08008KT 04/M09 A3025 RMK A01 T00441089  RH  037%=      5-min Rain = 0
KTA1 130323Z 08008KT 04/M09 A3025 RMK A01 T00441089  RH  037%=      5-min Rain = 0
KTA1 130324Z 08008KT 04/M09 A3025 RMK A01 T00441089  RH  037%=      5-min Rain = 0
KTA1 130325Z 08008KT 04/M09 A3025 RMK A01 T00431089  RH  037%=      5-min Rain = 0
KTA1 130326Z 08008KT 04/M09 A3025 RMK A01 T00431089  RH  038%=      5-min Rain = 0
KTA1 130327Z 08008KT 04/M09 A3025 RMK A01 T00421090  RH  038%=      5-min Rain = 0
KTA1 130328Z 09008KT 04/M09 A3025 RMK A01 T00421090  RH  038%=      5-min Rain = 0
KTA1 130329Z 08007KT 04/M09 A3025 RMK A01 T00421090  RH  038%=      5-min Rain = 0
KTA1 130330Z 08007KT 04/M09 A3025 RMK A01 T00421090  RH  038%=      5-min Rain = 0
KTA1 130331Z 09008KT 04/M09 A3025 RMK A01 T00411091  RH  038%=      5-min Rain = 0
KTA1 130332Z 08008KT 04/M09 A3025 RMK A01 T00411091  RH  038%=      5-min Rain = 0
KTA1 130333Z 08008KT 04/M09 A3025 RMK A01 T00411091  RH  038%=      5-min Rain = 0
KTA1 130334Z 08008KT 04/M09 A3025 RMK A01 T00411091  RH  037%=      5-min Rain = 0
KTA1 130335Z 08008KT 04/M09 A3025 RMK A01 T00401091  RH  038%=      5-min Rain = 0
KTA1 130336Z 08009KT 04/M09 A3025 RMK A01 T00401091  RH  038%=      5-min Rain = 0
KTA1 130337Z 07008KT 04/M09 A3025 RMK A01 T00391092  RH  038%=      5-min Rain = 0
KTA1 130338Z 08008KT 04/M09 A3025 RMK A01 T00381092  RH  038%=      5-min Rain = 0
KTA1 130339Z 08008KT 04/M09 A3025 RMK A01 T00371092  RH  038%=      5-min Rain = 0
KTA1 130340Z 08007KT 04/M09 A3025 RMK A01 T00361092  RH  038%=      5-min Rain = 0
KTA1 130341Z 08007KT 04/M09 A3025 RMK A01 T00361092  RH  039%=      5-min Rain = 0
KTA1 130342Z 08007KT 04/M09 A3025 RMK A01 T00361092  RH  039%=      5-min Rain = 0
KTA1 130343Z 08007KT 04/M09 A3025 RMK A01 T00351092  RH  039%=      5-min Rain = 0
KTA1 130344Z 08007KT 04/M09 A3025 RMK A01 T00351092  RH  039%=      5-min Rain = 0
KTA1 130345Z 08007KT 04/M09 A3025 RMK A01 T00351092  RH  039%=      5-min Rain = 0
KTA1 130346Z 08007KT 04/M09 A3026 RMK A01 T00351092  RH  039%=      5-min Rain = 0
KTA1 130347Z 08007KT 04/M09 A3026 RMK A01 T00351093  RH  039%=      5-min Rain = 0
KTA1 130348Z 08007KT 03/M09 A3026 RMK A01 T00341093  RH  039%=      5-min Rain = 0
KTA1 130349Z 08008KT 03/M09 A3026 RMK A01 T00341093  RH  039%=      5-min Rain = 0
KTA1 130350Z 07007KT 03/M09 A3026 RMK A01 T00341093  RH  039%=      5-min Rain = 0
KTA1 130351Z 07007KT 03/M09 A3026 RMK A01 T00331093  RH  039%=      5-min Rain = 0
KTA1 130352Z 08007KT 03/M09 A3026 RMK A01 T00321093  RH  039%=      5-min Rain = 0
KTA1 130353Z 08007KT 03/M09 A3026 RMK A01 T00321093  RH  039%=      5-min Rain = 0
KTA1 130354Z 08007KT 03/M09 A3027 RMK A01 T00321093  RH  039%=      5-min Rain = 0
KTA1 130355Z 08007KT 03/M09 A3027 RMK A01 T00321093  RH  039%=      5-min Rain = 0
KTA1 130356Z 08007KT 03/M09 A3027 RMK A01 T00311093  RH  039%=      5-min Rain = 0
KTA1 130357Z 08007KT 03/M09 A3027 RMK A01 T00311093  RH  040%=      5-min Rain = 0
KTA1 130358Z 08007KT 03/M09 A3027 RMK A01 T00311093  RH  040%=      5-min Rain = 0
KTA1 130359Z 08007KT 03/M09 A3027 RMK A01 T00311094  RH  040%=      5-min Rain = 0
KTA1 130400Z 07007KT 03/M09 A3027 RMK A01 T00311094  RH  040%=      5-min Rain = 0
KTA1 130401Z 07008KT 03/M09 A3027 RMK A01 T00311094  RH  040%=      5-min Rain = 0
KTA1 130402Z 07008KT 03/M09 A3027 RMK A01 T00311094  RH  040%=      5-min Rain = 0
KTA1 130403Z 07008KT 03/M09 A3027 RMK A01 T00311093  RH  040%=      5-min Rain = 0
KTA1 130404Z 07007KT 03/M09 A3027 RMK A01 T00311094  RH  039%=      5-min Rain = 0
KTA1 130405Z 08007KT 03/M09 A3027 RMK A01 T00321094  RH  039%=      5-min Rain = 0
KTA1 130406Z 08007KT 03/M09 A3027 RMK A01 T00311094  RH  039%=      5-min Rain = 0
KTA1 130407Z 08007KT 03/M09 A3027 RMK A01 T00321094  RH  039%=      5-min Rain = 0
KTA1 130408Z 08007KT 03/M09 A3027 RMK A01 T00311094  RH  039%=      5-min Rain = 0
KTA1 130409Z 09007KT 03/M09 A3027 RMK A01 T00311094  RH  039%=      5-min Rain = 0
KTA1 130410Z 08008KT 03/M09 A3027 RMK A01 T00311094  RH  039%=      5-min Rain = 0
KTA1 130411Z 08007KT 03/M09 A3027 RMK A01 T00311094  RH  039%=      5-min Rain = 0
KTA1 130412Z 07008KT 03/M09 A3028 RMK A01 T00311094  RH  039%=      5-min Rain = 0
KTA1 130413Z 07008KT 03/M10 A3028 RMK A01 T00301095  RH  039%=      5-min Rain = 0
KTA1 130414Z 07008KT 03/M10 A3028 RMK A01 T00291095  RH  040%=      5-min Rain = 0
KTA1 130415Z 06008KT 03/M10 A3028 RMK A01 T00291095  RH  040%=      5-min Rain = 0
KTA1 130416Z 07008KT 03/M10 A3028 RMK A01 T00281095  RH  040%=      5-min Rain = 0
KTA1 130417Z 07008KT 03/M10 A3028 RMK A01 T00271095  RH  040%=      5-min Rain = 0
KTA1 130418Z 07008KT 03/M10 A3028 RMK A01 T00271095  RH  040%=      5-min Rain = 0
KTA1 130419Z 07008KT 03/M10 A3028 RMK A01 T00271095  RH  040%=      5-min Rain = 0
KTA1 130420Z 08009KT 03/M10 A3028 RMK A01 T00271095  RH  040%=      5-min Rain = 0
KTA1 130421Z 08008KT 03/M10 A3028 RMK A01 T00271095  RH  040%=      5-min Rain = 0
KTA1 130422Z 07009KT 03/M10 A3029 RMK A01 T00271095  RH  040%=      5-min Rain = 0
KTA1 130423Z 07009KT 03/M10 A3029 RMK A01 T00271095  RH  040%=      5-min Rain = 0
KTA1 130424Z 07009KT 03/M10 A3029 RMK A01 T00271095  RH  040%=      5-min Rain = 0
KTA1 130425Z 06009KT 03/M10 A3029 RMK A01 T00271095  RH  040%=      5-min Rain = 0
KTA1 130426Z 06010KT 03/M10 A3029 RMK A01 T00271096  RH  040%=      5-min Rain = 0
KTA1 130427Z 06009KT 03/M10 A303 RMK A01 T00271096  RH  040%=      5-min Rain = 0
KTA1 130428Z 06009KT 03/M10 A303 RMK A01 T00271096  RH  040%=      5-min Rain = 0
KTA1 130429Z 06010KT 03/M10 A303 RMK A01 T00271096  RH  040%=      5-min Rain = 0
KTA1 130430Z 07009KT 03/M10 A303 RMK A01 T00271096  RH  040%=      5-min Rain = 0
KTA1 130431Z 07009KT 03/M10 A303 RMK A01 T00271096  RH  040%=      5-min Rain = 0
KTA1 130432Z 07009KT 03/M10 A303 RMK A01 T00271096  RH  040%=      5-min Rain = 0
KTA1 130433Z 07009KT 03/M10 A303 RMK A01 T00271096  RH  040%=      5-min Rain = 0
KTA1 130434Z 08009KT 03/M10 A303 RMK A01 T00271096  RH  040%=      5-min Rain = 0
KTA1 130435Z 07009KT 03/M10 A303 RMK A01 T00271096  RH  040%=      5-min Rain = 0
KTA1 130436Z 07009KT 03/M10 A303 RMK A01 T00271096  RH  040%=      5-min Rain = 0
KTA1 130437Z 07009KT 03/M10 A303 RMK A01 T00271096  RH  040%=      5-min Rain = 0
KTA1 130438Z 07010KT 03/M10 A303 RMK A01 T00281096  RH  040%=      5-min Rain = 0
KTA1 130439Z 07008KT 03/M10 A303 RMK A01 T00271096  RH  040%=      5-min Rain = 0
KTA1 130440Z 07009KT 03/M10 A303 RMK A01 T00271097  RH  040%=      5-min Rain = 0
KTA1 130441Z 07008KT 03/M10 A303 RMK A01 T00271096  RH  040%=      5-min Rain = 0
KTA1 130442Z 07008KT 03/M10 A303 RMK A01 T00261097  RH  040%=      5-min Rain = 0
KTA1 130443Z 06008KT 03/M10 A303 RMK A01 T00251097  RH  040%=      5-min Rain = 0
KTA1 130444Z 06008KT 03/M10 A3031 RMK A01 T00251097  RH  040%=      5-min Rain = 0
KTA1 130445Z 06008KT 03/M10 A3031 RMK A01 T00251097  RH  040%=      5-min Rain = 0
KTA1 130446Z 06009KT 02/M10 A3031 RMK A01 T00241097  RH  040%=      5-min Rain = 0
KTA1 130447Z 06009KT 02/M10 A3031 RMK A01 T00241097  RH  040%=      5-min Rain = 0
KTA1 130448Z 06008KT 03/M10 A3031 RMK A01 T00251097  RH  040%=      5-min Rain = 0
KTA1 130449Z 07009KT 03/M10 A3031 RMK A01 T00251098  RH  040%=      5-min Rain = 0
KTA1 130450Z 07009KT 03/M10 A3031 RMK A01 T00261099  RH  039%=      5-min Rain = 0
KTA1 130451Z 07009KT 03/M10 A3031 RMK A01 T00261099  RH  039%=      5-min Rain = 0
KTA1 130452Z 06009KT 03/M10 A3031 RMK A01 T00261100  RH  039%=      5-min Rain = 0
KTA1 130453Z 06010KT 03/M10 A3031 RMK A01 T00271100  RH  039%=      5-min Rain = 0
KTA1 130454Z 06010KT 03/M10 A3031 RMK A01 T00271101  RH  038%=      5-min Rain = 0
KTA1 130455Z 06010KT 03/M10 A3031 RMK A01 T00271101  RH  038%=      5-min Rain = 0
KTA1 130456Z 06011KT 03/M10 A3031 RMK A01 T00271102  RH  038%=      5-min Rain = 0
KTA1 130457Z 06010KT 03/M10 A3031 RMK A01 T00271102  RH  038%=      5-min Rain = 0
KTA1 130458Z 07011KT 03/M10 A3031 RMK A01 T00271102  RH  038%=      5-min Rain = 0
KTA1 130459Z 06011KT 03/M10 A3031 RMK A01 T00281102  RH  038%=      5-min Rain = 0
KTA1 130500Z 07012KT 03/M10 A3031 RMK A01 T00281102  RH  038%=      5-min Rain = 0
KTA1 130501Z 07012KT 03/M10 A3031 RMK A01 T00291102  RH  038%=      5-min Rain = 0
KTA1 130502Z 07012KT 03/M10 A3031 RMK A01 T00291102  RH  037%=      5-min Rain = 0
KTA1 130503Z 06011KT 03/M10 A3031 RMK A01 T00291102  RH  037%=      5-min Rain = 0
KTA1 130504Z 06012KT 03/M10 A3032 RMK A01 T00291102  RH  037%=      5-min Rain = 0
KTA1 130505Z 06011KT 03/M10 A3031 RMK A01 T00291102  RH  037%=      5-min Rain = 0
KTA1 130506Z 06011KT 03/M10 A3032 RMK A01 T00281103  RH  037%=      5-min Rain = 0
KTA1 130507Z 06011KT 03/M10 A3032 RMK A01 T00281103  RH  038%=      5-min Rain = 0
KTA1 130508Z 06011KT 03/M10 A3032 RMK A01 T00271103  RH  038%=      5-min Rain = 0
KTA1 130509Z 06012KT 03/M10 A3032 RMK A01 T00271103  RH  038%=      5-min Rain = 0
KTA1 130510Z 06011KT 03/M10 A3032 RMK A01 T00271103  RH  038%=      5-min Rain = 0
KTA1 130511Z 06012KT 03/M10 A3032 RMK A01 T00261104  RH  038%=      5-min Rain = 0
KTA1 130512Z 06011KT 03/M10 A3032 RMK A01 T00261104  RH  038%=      5-min Rain = 0
KTA1 130513Z 05011KT 03/M11 A3032 RMK A01 T00251105  RH  038%=      5-min Rain = 0
KTA1 130514Z 05009KT 02/M11 A3032 RMK A01 T00241105  RH  038%=      5-min Rain = 0
KTA1 130515Z 05009KT 02/M11 A3032 RMK A01 T00231105  RH  038%=      5-min Rain = 0
KTA1 130516Z 05012KT 02/M11 A3032 RMK A01 T00211105  RH  039%=      5-min Rain = 0
KTA1 130517Z 05012KT 02/M11 A3033 RMK A01 T00201105  RH  039%=      5-min Rain = 0
KTA1 130518Z 05011KT 02/M11 A3033 RMK A01 T00191106  RH  039%=      5-min Rain = 0
KTA1 130519Z 05011KT 02/M11 A3033 RMK A01 T00171106  RH  039%=      5-min Rain = 0
KTA1 130520Z 05011KT 02/M11 A3033 RMK A01 T00161106  RH  040%=      5-min Rain = 0
KTA1 130521Z 05012KT 02/M11 A3033 RMK A01 T00161106  RH  040%=      5-min Rain = 0
KTA1 130522Z 05012KT 02/M11 A3033 RMK A01 T00161107  RH  040%=      5-min Rain = 0
KTA1 130523Z 05012KT 02/M11 A3033 RMK A01 T00161107  RH  039%=      5-min Rain = 0
KTA1 130524Z 05011KT 02/M11 A3033 RMK A01 T00161108  RH  039%=      5-min Rain = 0
KTA1 130525Z 05012KT 02/M11 A3033 RMK A01 T00151108  RH  039%=      5-min Rain = 0
KTA1 130526Z 05012KT 02/M11 A3033 RMK A01 T00151108  RH  040%=      5-min Rain = 0
KTA1 130527Z 06012KT 02/M11 A3033 RMK A01 T00151108  RH  040%=      5-min Rain = 0
KTA1 130528Z 05014KT 01/M11 A3033 RMK A01 T00141109  RH  040%=      5-min Rain = 0
KTA1 130529Z 05012KT 01/M11 A3033 RMK A01 T00141108  RH  040%=      5-min Rain = 0
KTA1 130530Z 05012KT 01/M11 A3033 RMK A01 T00131109  RH  040%=      5-min Rain = 0
KTA1 130531Z 05012KT 01/M11 A3034 RMK A01 T00131109  RH  040%=      5-min Rain = 0
KTA1 130532Z 05011KT 01/M11 A3034 RMK A01 T00121109  RH  040%=      5-min Rain = 0
KTA1 130533Z 05013KT 01/M11 A3034 RMK A01 T00121109  RH  040%=      5-min Rain = 0
KTA1 130534Z 05013KT 01/M11 A3034 RMK A01 T00121109  RH  040%=      5-min Rain = 0
KTA1 130535Z 05014KT 01/M11 A3034 RMK A01 T00121109  RH  040%=      5-min Rain = 0
KTA1 130536Z 05013KT 01/M11 A3034 RMK A01 T00121109  RH  040%=      5-min Rain = 0
KTA1 130537Z 05015KT 01/M11 A3034 RMK A01 T00111110  RH  040%=      5-min Rain = 0
KTA1 130538Z 05013KT 01/M11 A3034 RMK A01 T00111110  RH  040%=      5-min Rain = 0
KTA1 130539Z 05012KT 01/M11 A3034 RMK A01 T00121110  RH  040%=      5-min Rain = 0
KTA1 130540Z 06013KT 01/M11 A3034 RMK A01 T00111111  RH  040%=      5-min Rain = 0
KTA1 130541Z 06013KT 01/M11 A3034 RMK A01 T00101111  RH  040%=      5-min Rain = 0
KTA1 130542Z 06014G19KT 01/M11 A3034 RMK A01 T00101111  RH  040%=      5-min Rain = 0
KTA1 130543Z 06015KT 01/M11 A3034 RMK A01 T00101111  RH  040%=      5-min Rain = 0
KTA1 130544Z 06012KT 01/M11 A3034 RMK A01 T00101112  RH  040%=      5-min Rain = 0
KTA1 130545Z 06010KT 01/M11 A3034 RMK A01 T00101112  RH  040%=      5-min Rain = 0
KTA1 130546Z 06012KT 01/M11 A3034 RMK A01 T00091112  RH  040%=      5-min Rain = 0
KTA1 130547Z 06014KT 01/M11 A3034 RMK A01 T00091112  RH  040%=      5-min Rain = 0
KTA1 130548Z 06013KT 01/M11 A3034 RMK A01 T00091112  RH  040%=      5-min Rain = 0
KTA1 130549Z 06013KT 01/M11 A3034 RMK A01 T00091112  RH  040%=      5-min Rain = 0
KTA1 130550Z 06012KT 01/M11 A3034 RMK A01 T00091112  RH  040%=      5-min Rain = 0
KTA1 130551Z 06011G16KT 01/M11 A3034 RMK A01 T00091113  RH  040%=      5-min Rain = 0
KTA1 130552Z 06012KT 01/M11 A3034 RMK A01 T00081113  RH  040%=      5-min Rain = 0
KTA1 130553Z 06013KT 01/M11 A3035 RMK A01 T00091113  RH  040%=      5-min Rain = 0
KTA1 130554Z 06012KT 01/M11 A3035 RMK A01 T00081113  RH  040%=      5-min Rain = 0
KTA1 130555Z 06011KT 01/M11 A3035 RMK A01 T00081113  RH  040%=      5-min Rain = 0
KTA1 130556Z 06011KT 01/M11 A3035 RMK A01 T00081113  RH  040%=      5-min Rain = 0
KTA1 130557Z 06011G16KT 01/M11 A3035 RMK A01 T00081113  RH  040%=      5-min Rain = 0
KTA1 130558Z 06013KT 01/M11 A3035 RMK A01 T00081114  RH  040%=      5-min Rain = 0
KTA1 130559Z 06012KT 01/M12 A3035 RMK A01 T00071115  RH  040%=      5-min Rain = 0

Page generated in 0.0806 seconds.